KC5DAQ-2 Weather Reports


Display with metric or nautical units.
time (UTC)temp
F
wind
direction
speed
MPH
gust
MPH
rain 1hr
in
rain 24hr
in
rain mn
in
humidity
%
barometer
mb
20210922124639 65 109 0.0 4.0 0.00 0.00 0.00 66 1025.8
20210922124540 66 59 0.0 4.0 0.00 0.00 0.00 66 1025.8
20210922124439 66 59 0.0 4.0 0.00 0.00 0.00 66 1025.8
20210922124340 66 59 1.0 5.0 0.00 0.00 0.00 66 1025.8
20210922124240 66 59 2.0 5.0 0.00 0.00 0.00 66 1025.7
20210922124139 66 86 1.0 5.0 0.00 0.00 0.00 67 1025.7
20210922124040 66 312 0.0 5.0 0.00 0.00 0.00 67 1025.6
20210922123940 66 310 0.0 5.0 0.00 0.00 0.00 67 1025.6
20210922123838 66 310 0.0 5.0 0.00 0.00 0.00 67 1025.6
20210922123739 66 310 1.0 5.0 0.00 0.00 0.00 66 1025.6
20210922123638 66 312 2.0 5.0 0.00 0.00 0.00 66 1025.6
20210922123539 66 312 2.0 5.0 0.00 0.00 0.00 66 1025.6
20210922123440 66 71 1.0 3.0 0.00 0.00 0.00 66 1025.6
20210922123338 66 75 1.0 3.0 0.00 0.00 0.00 66 1025.6
20210922123239 66 86 0.0 3.0 0.00 0.00 0.00 65 1025.7
20210922123138 66 86 1.0 3.0 0.00 0.00 0.00 65 1025.6
20210922123039 66 80 2.0 3.0 0.00 0.00 0.00 65 1025.6
20210922122939 66 89 3.0 4.0 0.00 0.00 0.00 65 1025.6
20210922122838 66 49 2.0 4.0 0.00 0.00 0.00 66 1025.5
20210922122737 66 49 2.0 4.0 0.00 0.00 0.00 66 1025.6
20210922122637 66 49 2.0 4.0 0.00 0.00 0.00 66 1025.6
20210922122537 66 49 2.0 4.0 0.00 0.00 0.00 66 1025.6
20210922122437 66 49 2.0 4.0 0.00 0.00 0.00 66 1025.5
20210922122337 66 49 2.0 4.0 0.00 0.00 0.00 66 1025.6
20210922122237 66 49 2.0 4.0 0.00 0.00 0.00 66 1025.5
20210922122137 66 49 2.0 4.0 0.00 0.00 0.00 66 1025.4
20210922122037 66 65 1.0 3.0 0.00 0.00 0.00 66 1025.5
20210922121937 66 41 1.0 2.0 0.00 0.00 0.00 66 1025.5
20210922121837 66 49 0.0 2.0 0.00 0.00 0.00 66 1025.5
20210922121736 66 49 0.0 2.0 0.00 0.00 0.00 66 1025.5
20210922121636 66 49 0.0 2.0 0.00 0.00 0.00 65 1025.4
20210922121536 66 69 0.0 2.0 0.00 0.00 0.00 66 1025.5
20210922121437 66 69 0.0 2.0 0.00 0.00 0.00 66 1025.5
20210922121336 66 69 1.0 2.0 0.00 0.00 0.00 66 1025.4
20210922121238 66 69 1.0 2.0 0.00 0.00 0.00 66 1025.4
20210922121136 66 113 0.0 1.0 0.00 0.00 0.00 66 1025.4
20210922121037 66 113 0.0 1.0 0.00 0.00 0.00 66 1025.4
20210922120936 66 103 0.0 1.0 0.00 0.00 0.00 65 1025.4
20210922120836 66 103 0.0 1.0 0.00 0.00 0.00 65 1025.4
20210922120735 66 103 0.0 1.0 0.00 0.00 0.00 65 1025.4
20210922120636 66 103 1.0 1.0 0.00 0.00 0.00 65 1025.3
20210922120536 66 103 1.0 1.0 0.00 0.00 0.00 64 1025.3
20210922120433 67 110 0.0 1.0 0.00 0.00 0.00 64 1025.4
20210922120334 67 110 0.0 1.0 0.00 0.00 0.00 64 1025.3
20210922120233 67 110 0.0 1.0 0.00 0.00 0.00 64 1025.3
20210922120133 67 110 0.0 2.0 0.00 0.00 0.00 64 1025.3
20210922120033 67 110 0.0 3.0 0.00 0.00 0.00 64 1025.3
20210922115933 67 110 0.0 3.0 0.00 0.00 0.00 64 1025.2
20210922115833 67 130 2.0 3.0 0.00 0.00 0.00 64 1025.2
20210922115731 67 130 2.0 3.0 0.00 0.00 0.00 64 1025.2
20210922115632 67 130 2.0 3.0 0.00 0.00 0.00 64 1025.2
20210922115532 67 130 2.0 3.0 0.00 0.00 0.00 64 1025.2
20210922115433 67 130 2.0 3.0 0.00 0.00 0.00 64 1025.0
20210922115332 67 130 2.0 3.0 0.00 0.00 0.00 64 1025.0
20210922115232 67 130 2.0 3.0 0.00 0.00 0.00 64 1025.0
20210922115133 67 69 2.0 3.0 0.00 0.00 0.00 64 1025.0
20210922115033 67 44 1.0 2.0 0.00 0.00 0.00 64 1025.2
20210922114932 0 0.0 0.0 0.00 0.00 0.00 1025.0
20210922114831 0 0.0 0.0 0.00 0.00 0.00 1025.2
20210922114731 0 0.0 0.0 0.00 0.00 0.00 1025.2
20210922114631 0 0.0 0.0 0.00 0.00 0.00 1025.2
20210922114531 0 0.0 0.0 0.00 0.00 0.00 1025.2
20210922114432 0 0.0 0.0 0.00 0.00 0.00 1025.2
20210922114329 0 0.0 0.0 0.00 0.00 0.00 1025.0
20210922114229 0 92 2.0 3.0 0.00 0.00 0.00 1025.0
20210922114131 67 92 2.0 3.0 0.00 0.00 0.00 64 1025.0
20210922114031 67 92 2.0 3.0 0.00 0.00 0.00 64 1025.0
20210922113930 67 92 2.0 4.0 0.00 0.00 0.00 64 1025.0
20210922113828 67 92 2.0 4.0 0.00 0.00 0.00 64 1025.0
20210922113728 67 92 2.0 4.0 0.00 0.00 0.00 64 1025.0
20210922113628 67 92 2.0 4.0 0.00 0.00 0.00 64 1024.9
20210922113527 67 92 2.0 4.0 0.00 0.00 0.00 64 1024.9
20210922113427 67 92 2.0 4.0 0.00 0.00 0.00 64 1024.9
20210922113304 67 92 2.0 5.0 0.00 0.00 0.00 64 1024.9
20210922113202 67 103 2.0 5.0 0.00 0.00 0.00 64 1024.9
20210922113103 68 45 2.0 5.0 0.00 0.00 0.00 64 1024.9
20210922113003 67 62 2.0 5.0 0.00 0.00 0.00 64 1024.8
20210922112905 68 350 0.0 5.0 0.00 0.00 0.00 64 1024.8
20210922112804 68 72 0.0 5.0 0.00 0.00 0.00 64 1024.8
20210922112703 68 72 1.0 5.0 0.00 0.00 0.00 63 1024.8
20210922112602 68 72 2.0 5.0 0.00 0.00 0.00 63 1024.8
20210922112502 68 69 2.0 5.0 0.00 0.00 0.00 63 1024.7
20210922112402 68 71 1.0 5.0 0.00 0.00 0.00 64 1024.7
20210922112305 68 97 0.0 4.0 0.00 0.00 0.00 64 1024.8
20210922112202 68 97 0.0 7.0 0.00 0.00 0.00 64 1024.7
20210922112103 68 89 1.0 7.0 0.00 0.00 0.00 64 1024.7
20210922112005 68 89 1.0 7.0 0.00 0.00 0.00 64 1024.7
20210922111902 68 89 2.0 7.0 0.00 0.00 0.00 64 1024.7
20210922111803 68 104 1.0 7.0 0.00 0.00 0.00 64 1024.7
20210922111704 68 104 1.0 7.0 0.00 0.00 0.00 63 1024.7
20210922111602 68 87 0.0 7.0 0.00 0.00 0.00 63 1024.6
20210922111502 68 87 1.0 7.0 0.00 0.00 0.00 63 1024.7
20210922111402 68 87 3.0 7.0 0.00 0.00 0.00 63 1024.6
20210922111302 68 87 3.0 7.0 0.00 0.00 0.00 64 1024.6
20210922111203 68 61 2.0 6.0 0.00 0.00 0.00 64 1024.7
20210922111103 68 66 0.0 5.0 0.00 0.00 0.00 64 1024.6
20210922111004 68 66 1.0 5.0 0.00 0.00 0.00 64 1024.6
20210922110902 68 66 1.0 5.0 0.00 0.00 0.00 64 1024.6
20210922110802 68 59 2.0 5.0 0.00 0.00 0.00 64 1024.6
20210922110702 68 58 2.0 5.0 0.00 0.00 0.00 64 1024.6
20210922110604 68 120 0.0 5.0 0.00 0.00 0.00 64 1024.5
20210922110505 68 73 1.0 5.0 0.00 0.00 0.00 64 1024.6
20210922110402 68 73 1.0 5.0 0.00 0.00 0.00 64 1024.6
20210922110304 69 75 1.0 5.0 0.00 0.00 0.00 63 1024.5
20210922110204 69 75 1.0 5.0 0.00 0.00 0.00 63 1024.6
20210922110104 69 62 1.0 4.0 0.00 0.00 0.00 63 1024.6
20210922110001 69 49 0.0 4.0 0.00 0.00 0.00 64 1024.6
20210922105902 69 80 0.0 4.0 0.00 0.00 0.00 63 1024.6
20210922105803 69 80 1.0 4.0 0.00 0.00 0.00 63 1024.6
20210922105702 69 80 2.0 4.0 0.00 0.00 0.00 63 1024.7
20210922105605 69 92 1.0 4.0 0.00 0.00 0.00 63 1024.7
20210922105505 69 93 1.0 4.0 0.00 0.00 0.00 63 1024.6
20210922105403 69 86 2.0 4.0 0.00 0.00 0.00 63 1024.6
20210922105305 69 86 2.0 4.0 0.00 0.00 0.00 63 1024.7
20210922105201 69 110 1.0 3.0 0.00 0.00 0.00 63 1024.7
20210922105104 69 104 1.0 3.0 0.00 0.00 0.00 63 1024.6
20210922105003 69 99 1.0 3.0 0.00 0.00 0.00 63 1024.7
20210922104903 69 99 1.0 5.0 0.00 0.00 0.00 63 1024.6
20210922104803 69 99 1.0 5.0 0.00 0.00 0.00 63 1024.6
20210922104702 69 110 1.0 5.0 0.00 0.00 0.00 63 1024.6
20210922104603 69 110 1.0 5.0 0.00 0.00 0.00 63 1024.6
20210922104503 69 87 1.0 5.0 0.00 0.00 0.00 62 1024.7
20210922104403 69 89 1.0 5.0 0.00 0.00 0.00 62 1024.7
20210922104304 69 104 1.0 5.0 0.00 0.00 0.00 62 1024.8
20210922104202 69 104 1.0 5.0 0.00 0.00 0.00 62 1024.7
20210922104103 69 104 2.0 5.0 0.00 0.00 0.00 62 1024.6
20210922104004 69 73 2.0 5.0 0.00 0.00 0.00 62 1024.8
20210922103904 69 75 1.0 3.0 0.00 0.00 0.00 62 1024.8
20210922103802 69 41 1.0 4.0 0.00 0.00 0.00 62 1024.8
20210922103704 69 94 1.0 4.0 0.00 0.00 0.00 62 1024.7
20210922103604 69 94 1.0 4.0 0.00 0.00 0.00 61 1024.8
20210922103506 69 79 1.0 4.0 0.00 0.00 0.00 62 1024.7
20210922103403 69 79 1.0 4.0 0.00 0.00 0.00 62 1024.6
20210922103303 69 72 1.0 4.0 0.00 0.00 0.00 62 1024.7
20210922103202 69 89 1.0 4.0 0.00 0.00 0.00 62 1024.7
20210922103104 69 89 2.0 4.0 0.00 0.00 0.00 62 1024.6
20210922103005 69 78 1.0 4.0 0.00 0.00 0.00 62 1024.7
20210922102904 69 79 1.0 4.0 0.00 0.00 0.00 62 1024.7
20210922102802 69 90 0.0 2.0 0.00 0.00 0.00 63 1024.7
20210922102704 69 90 1.0 2.0 0.00 0.00 0.00 63 1024.6
20210922102602 70 76 0.0 2.0 0.00 0.00 0.00 62 1024.7
20210922102504 70 140 1.0 2.0 0.00 0.00 0.00 62 1024.6
20210922102404 70 140 1.0 2.0 0.00 0.00 0.00 62 1024.6
20210922102239 70 140 1.0 3.0 0.00 0.00 0.00 62 1024.6
20210922102138 70 140 1.0 3.0 0.00 0.00 0.00 61 1024.6
20210922102032 70 131 0.0 3.0 0.00 0.00 0.00 62 1024.6
20210922101934 70 125 0.0 3.0 0.00 0.00 0.00 62 1024.6
20210922101833 70 125 0.0 3.0 0.00 0.00 0.00 62 1024.6
20210922101732 70 125 0.0 5.0 0.00 0.00 0.00 62 1024.7
20210922101632 70 125 1.0 5.0 0.00 0.00 0.00 61 1024.7
20210922101532 70 125 2.0 5.0 0.00 0.00 0.00 61 1024.5
20210922101433 70 86 2.0 5.0 0.00 0.00 0.00 61 1024.6
20210922101332 70 90 2.0 5.0 0.00 0.00 0.00 62 1024.6
20210922101225 70 161 0.0 5.0 0.00 0.00 0.00 62 1024.6
20210922101125 70 151 0.0 5.0 0.00 0.00 0.00 62 1024.6
20210922101025 70 152 0.0 5.0 0.00 0.00 0.00 61 1024.7
20210922100925 70 152 2.0 5.0 0.00 0.00 0.00 61 1024.6
20210922100825 70 151 3.0 5.0 0.00 0.00 0.00 62 1024.6
20210922100726 70 16 2.0 5.0 0.00 0.00 0.00 61 1024.6
20210922100625 70 85 2.0 5.0 0.00 0.00 0.00 61 1024.5
20210922100525 70 76 2.0 5.0 0.00 0.00 0.00 61 1024.6
20210922100426 70 90 0.0 5.0 0.00 0.00 0.00 61 1024.6
20210922100326 70 90 0.0 5.0 0.00 0.00 0.00 61 1024.6
20210922100225 70 90 1.0 5.0 0.00 0.00 0.00 61 1024.6
20210922100125 70 89 1.0 5.0 0.00 0.00 0.00 62 1024.6
20210922100025 70 89 2.0 5.0 0.00 0.00 0.00 62 1024.6
20210922095926 70 69 2.0 5.0 0.00 0.00 0.00 62 1024.6
20210922095826 70 68 2.0 5.0 0.00 0.00 0.00 62 1024.6
20210922095724 70 0 2.0 4.0 0.00 0.00 0.00 62 1024.5
20210922095625 70 292 1.0 3.0 0.00 0.00 0.00 62 1024.6
20210922095526 70 79 1.0 3.0 0.00 0.00 0.00 61 1024.6
20210922095425 71 79 1.0 3.0 0.00 0.00 0.00 61 1024.5
20210922095325 71 79 1.0 3.0 0.00 0.00 0.00 61 1024.5
20210922095225 71 69 0.0 3.0 0.00 0.00 0.00 61 1024.6
20210922095125 71 69 1.0 3.0 0.00 0.00 0.00 61 1024.5
20210922095025 71 69 2.0 3.0 0.00 0.00 0.00 61 1024.5
20210922094925 71 18 1.0 3.0 0.00 0.00 0.00 61 1024.5
20210922094826 71 96 1.0 3.0 0.00 0.00 0.00 61 1024.4
20210922094725 71 96 1.0 3.0 0.00 0.00 0.00 61 1024.5
20210922094625 71 94 2.0 3.0 0.00 0.00 0.00 61 1024.5
20210922094525 71 96 1.0 3.0 0.00 0.00 0.00 61 1024.5
20210922094425 71 85 0.0 3.0 0.00 0.00 0.00 60 1024.5
20210922094324 71 85 0.0 3.0 0.00 0.00 0.00 60 1024.4
20210922094225 71 85 0.0 3.0 0.00 0.00 0.00 60 1024.5
20210922094125 71 82 1.0 3.0 0.00 0.00 0.00 61 1024.4
20210922094026 71 82 1.0 3.0 0.00 0.00 0.00 61 1024.5
20210922093925 71 83 1.0 3.0 0.00 0.00 0.00 61 1024.4
20210922093826 71 90 0.0 1.0 0.00 0.00 0.00 61 1024.5
20210922093725 0 90 0.0 0.0 0.00 0.00 0.00 1024.5
20210922093625 0 0.0 0.0 0.00 0.00 0.00 1024.4
20210922093524 0 0.0 0.0 0.00 0.00 0.00 1024.4
20210922093424 71 299 1.0 0.0 0.00 0.00 0.00 61 1024.5
20210922093323 71 299 1.0 0.0 0.00 0.00 0.00 61 1024.4
20210922093224 71 299 1.0 5.0 0.00 0.00 0.00 61 1024.5
20210922093123 71 299 1.0 5.0 0.00 0.00 0.00 61 1024.5
20210922093021 71 299 1.0 5.0 0.00 0.00 0.00 61 1024.5
20210922092925 71 299 1.0 5.0 0.00 0.00 0.00 61 1024.4
20210922092821 71 299 1.0 5.0 0.00 0.00 0.00 61 1024.5
20210922092721 71 299 1.0 5.0 0.00 0.00 0.00 61 1024.4
20210922092621 71 299 1.0 5.0 0.00 0.00 0.00 61 1024.4
20210922092521 71 299 1.0 5.0 0.00 0.00 0.00 61 1024.4
20210922092421 71 299 1.0 5.0 0.00 0.00 0.00 60 1024.4
20210922092321 71 295 2.0 6.0 0.00 0.00 0.00 60 1024.4
20210922092221 71 90 0.0 6.0 0.00 0.00 0.00 60 1024.3
20210922092122 71 90 1.0 6.0 0.00 0.00 0.00 60 1024.4
20210922092021 71 86 1.0 6.0 0.00 0.00 0.00 60 1024.3
20210922091921 71 56 1.0 6.0 0.00 0.00 0.00 60 1024.3
20210922091822 71 90 0.0 6.0 0.00 0.00 0.00 60 1024.3
20210922091721 72 90 0.0 6.0 0.00 0.00 0.00 60 1024.3
20210922091619 72 90 0.0 6.0 0.00 0.00 0.00 60 1024.3
20210922091521 72 62 3.0 6.0 0.00 0.00 0.00 60 1024.2
20210922091421 72 62 2.0 6.0 0.00 0.00 0.00 60 1024.2
20210922091320 72 133 0.0 5.0 0.00 0.00 0.00 60 1024.1
20210922091221 72 133 0.0 5.0 0.00 0.00 0.00 60 1024.1
20210922091120 72 341 0.0 5.0 0.00 0.00 0.00 60 1024.0
20210922091021 72 341 1.0 5.0 0.00 0.00 0.00 59 1024.0
20210922090922 72 103 3.0 5.0 0.00 0.00 0.00 59 1024.1
20210922090819 72 75 2.0 4.0 0.00 0.00 0.00 59 1024.0
20210922090719 72 75 2.0 4.0 0.00 0.00 0.00 59 1024.0
20210922090619 72 75 2.0 5.0 0.00 0.00 0.00 59 1024.0
20210922090519 72 75 2.0 5.0 0.00 0.00 0.00 59 1024.0
20210922090419 72 75 2.0 5.0 0.00 0.00 0.00 59 1024.0
20210922090319 72 75 2.0 5.0 0.00 0.00 0.00 59 1024.0
20210922090219 72 326 2.0 5.0 0.00 0.00 0.00 59 1024.0
20210922090119 72 326 1.0 5.0 0.00 0.00 0.00 59 1024.0
20210922090018 72 94 1.0 5.0 0.00 0.00 0.00 59 1024.0
20210922085918 72 134 2.0 5.0 0.00 0.00 0.00 59 1024.0
20210922085820 72 76 3.0 5.0 0.00 0.00 0.00 60 1023.9
20210922085719 72 355 3.0 5.0 0.00 0.00 0.00 60 1024.0
20210922085618 72 80 2.0 4.0 0.00 0.00 0.00 60 1024.0
20210922085518 72 83 2.0 4.0 0.00 0.00 0.00 60 1023.9
20210922085419 72 158 1.0 4.0 0.00 0.00 0.00 60 1023.9
20210922085319 72 99 1.0 4.0 0.00 0.00 0.00 60 1023.9
20210922085219 72 97 2.0 4.0 0.00 0.00 0.00 60 1023.8
20210922085119 72 71 1.0 4.0 0.00 0.00 0.00 60 1023.8
20210922085018 72 71 1.0 4.0 0.00 0.00 0.00 60 1023.8
20210922084918 72 72 2.0 4.0 0.00 0.00 0.00 60 1023.8
20210922084818 72 69 2.0 4.0 0.00 0.00 0.00 60 1023.9
20210922084717 72 224 2.0 4.0 0.00 0.00 0.00 60 1023.8
20210922084618 73 66 3.0 9.0 0.00 0.00 0.00 60 1023.8
20210922084518 73 83 1.0 9.0 0.00 0.00 0.00 60 1023.8
20210922084419 73 75 1.0 9.0 0.00 0.00 0.00 60 1023.8
20210922084319 73 75 1.0 9.0 0.00 0.00 0.00 60 1023.7
20210922084219 73 102 2.0 9.0 0.00 0.00 0.00 60 1023.7
20210922084120 73 102 2.0 9.0 0.00 0.00 0.00 60 1023.8
20210922084018 73 102 2.0 9.0 0.00 0.00 0.00 60 1023.7
20210922083918 73 102 2.0 9.0 0.00 0.00 0.00 60 1023.6
20210922083819 73 97 2.0 9.0 0.00 0.00 0.00 60 1023.6
20210922083718 73 34 2.0 9.0 0.00 0.00 0.00 59 1023.6
20210922083618 73 83 2.0 6.0 0.00 0.00 0.00 59 1023.7
20210922083518 73 68 1.0 6.0 0.00 0.00 0.00 59 1023.6
20210922083418 73 157 0.0 6.0 0.00 0.00 0.00 59 1023.6
20210922083317 73 157 0.0 6.0 0.00 0.00 0.00 59 1023.7
20210922083216 73 158 1.0 6.0 0.00 0.00 0.00 59 1023.7
20210922083118 73 92 2.0 6.0 0.00 0.00 0.00 60 1023.6
20210922083017 73 48 1.0 1.0 0.00 0.00 0.00 60 1023.7
20210922082919 0 0.0 0.0 0.00 0.00 0.00 1023.7
20210922082818 0 0.0 0.0 0.00 0.00 0.00 1023.7
20210922082718 0 0.0 0.0 0.00 0.00 0.00 1023.7
20210922082618 0 0.0 0.0 0.00 0.00 0.00 1023.7
20210922082516 0 0.0 0.0 0.00 0.00 0.00 1023.8
20210922082417 0 0 2.0 0.0 0.00 0.00 0.00 1023.7
20210922082316 73 0 2.0 3.0 0.00 0.00 0.00 60 1023.8
20210922082217 73 0 2.0 3.0 0.00 0.00 0.00 60 1023.7
20210922082116 73 0 2.0 3.0 0.00 0.00 0.00 60 1023.7
20210922082014 73 0 2.0 4.0 0.00 0.00 0.00 60 1023.6
20210922081915 73 0 2.0 4.0 0.00 0.00 0.00 60 1023.6
20210922081815 73 0 2.0 4.0 0.00 0.00 0.00 60 1023.6
20210922081716 73 0 2.0 6.0 0.00 0.00 0.00 60 1023.6
20210922081616 73 0 2.0 6.0 0.00 0.00 0.00 60 1023.6
20210922081516 73 0 2.0 6.0 0.00 0.00 0.00 60 1023.6
20210922081413 73 0 2.0 6.0 0.00 0.00 0.00 60 1023.6
20210922081313 73 93 2.0 6.0 0.00 0.00 0.00 60 1023.5
20210922081215 73 103 1.0 6.0 0.00 0.00 0.00 60 1023.5
20210922081106 74 65 1.0 6.0 0.00 0.00 0.00 59 1023.5
20210922081003 74 65 2.0 6.0 0.00 0.00 0.00 60 1023.5
20210922080903 74 86 2.0 6.0 0.00 0.00 0.00 60 1023.5
20210922080801 74 54 1.0 6.0 0.00 0.00 0.00 60 1023.6
20210922080703 74 90 1.0 6.0 0.00 0.00 0.00 60 1023.5
20210922080603 74 90 2.0 6.0 0.00 0.00 0.00 60 1023.5
20210922080504 74 11 1.0 6.0 0.00 0.00 0.00 60 1023.5
20210922080403 74 109 0.0 6.0 0.00 0.00 0.00 60 1023.5
20210922080303 74 109 2.0 6.0 0.00 0.00 0.00 60 1023.4
20210922080203 74 138 1.0 6.0 0.00 0.00 0.00 60 1023.4
20210922080104 74 333 0.0 2.0 0.00 0.00 0.00 60 1023.4
20210922080005 0 333 2.0 2.0 0.00 0.00 0.00 1023.5
20210922075903 0 0.0 0.0 0.00 0.00 0.00 1023.2
20210922075803 0 0.0 0.0 0.00 0.00 0.00 1023.3
20210922075704 0 0.0 0.0 0.00 0.00 0.00 1023.4
20210922075605 0 0.0 0.0 0.00 0.00 0.00 1023.4
20210922075503 0 0.0 0.0 0.00 0.00 0.00 1023.4
20210922075403 0 0.0 0.0 0.00 0.00 0.00 1023.3
20210922075305 0 0.0 0.0 0.00 0.00 0.00 1023.4
20210922075203 0 0.0 0.0 0.00 0.00 0.00 1023.3
20210922075103 0 0.0 0.0 0.00 0.00 0.00 1023.4
20210922075002 0 0.0 0.0 0.00 0.00 0.00 1023.3
20210922074903 0 0.0 0.0 0.00 0.00 0.00 1023.2
20210922074804 0 0.0 0.0 0.00 0.00 0.00 1023.3
20210922074704 0 0.0 0.0 0.00 0.00 0.00 1023.3
20210922074602 0 0.0 0.0 0.00 0.00 0.00 1023.3
20210922074504 0 0.0 0.0 0.00 0.00 0.00 1023.2
20210922074403 0 0.0 0.0 0.00 0.00 0.00 1023.2
20210922074302 0 0.0 0.0 0.00 0.00 0.00 1023.2
20210922074203 0 0.0 0.0 0.00 0.00 0.00 1023.1
20210922074104 0 0.0 0.0 0.00 0.00 0.00 1023.2
20210922074004 0 0.0 0.0 0.00 0.00 0.00 1023.1
20210922073903 0 0.0 0.0 0.00 0.00 0.00 1023.0
20210922073803 0 0.0 0.0 0.00 0.00 0.00 1023.0
20210922073704 75 42 1.0 1.0 0.00 0.00 0.00 59 1023.1
20210922073602 75 42 1.0 1.0 0.00 0.00 0.00 59 1023.1
20210922073503 75 42 1.0 1.0 0.00 0.00 0.00 59 1023.0
20210922073403 75 42 1.0 3.0 0.00 0.00 0.00 59 1022.9
20210922073231 75 42 1.0 5.0 0.00 0.00 0.00 59 1023.1
20210922073132 75 42 1.0 5.0 0.00 0.00 0.00 59 1023.1
20210922073032 75 42 1.0 5.0 0.00 0.00 0.00 59 1023.1
20210922072932 75 42 1.0 5.0 0.00 0.00 0.00 59 1023.0
20210922072831 75 42 1.0 5.0 0.00 0.00 0.00 59 1022.9
20210922072704 75 42 1.0 5.0 0.00 0.00 0.00 60 1023.0
20210922072603 75 17 2.0 5.0 0.00 0.00 0.00 59 1022.9
20210922072503 75 0 2.0 5.0 0.00 0.00 0.00 59 1022.9
20210922072403 75 73 1.0 5.0 0.00 0.00 0.00 60 1022.9
20210922072305 75 55 0.0 2.0 0.00 0.00 0.00 60 1022.9
20210922072203 75 96 1.0 2.0 0.00 0.00 0.00 60 1023.0
20210922072103 75 96 1.0 2.0 0.00 0.00 0.00 60 1022.8
20210922072003 75 96 0.0 6.0 0.00 0.00 0.00 60 1022.9
20210922071903 75 0 0.0 6.0 0.00 0.00 0.00 60 1022.9
20210922071804 75 0 1.0 6.0 0.00 0.00 0.00 60 1022.8
20210922071703 75 73 2.0 6.0 0.00 0.00 0.00 60 1022.9
20210922071602 75 73 2.0 6.0 0.00 0.00 0.00 60 1022.8
20210922071501 75 73 2.0 6.0 0.00 0.00 0.00 60 1022.9
20210922071401 75 73 2.0 6.0 0.00 0.00 0.00 60 1022.8
20210922071301 75 73 2.0 6.0 0.00 0.00 0.00 60 1022.8
20210922071201 75 73 2.0 6.0 0.00 0.00 0.00 60 1022.8
20210922071101 75 73 2.0 6.0 0.00 0.00 0.00 60 1022.9
20210922071000 75 259 1.0 3.0 0.00 0.00 0.00 60 1022.8
20210922070901 0 0.0 0.0 0.00 0.00 0.00 1022.7
20210922070759 0 0.0 0.0 0.00 0.00 0.00 1022.7
20210922070659 0 0.0 0.0 0.00 0.00 0.00 1022.8
20210922070559 0 0.0 0.0 0.00 0.00 0.00 1022.8
20210922070459 0 0.0 0.0 0.00 0.00 0.00 1022.8
20210922070359 0 0.0 0.0 0.00 0.00 0.00 1022.8
20210922070234 0 0.0 0.0 0.00 0.00 0.00 1022.8
20210922070133 0 0.0 0.0 0.00 0.00 0.00 1022.7
20210922070004 0 0.0 0.0 0.00 0.00 0.00 1022.7
20210922065903 0 0.0 0.0 0.00 0.00 0.00 1022.7
20210922065803 0 0.0 0.0 0.00 0.00 0.00 1022.6
20210922065703 0 0.0 0.0 0.00 0.00 0.00 1022.7
20210922065604 0 0.0 0.0 0.00 0.00 0.00 1022.7
20210922065503 0 0.0 0.0 0.00 0.00 0.00 1022.7
20210922065404 0 0.0 0.0 0.00 0.00 0.00 1022.7
20210922065305 0 0.0 0.0 0.00 0.00 0.00 1022.5
20210922065202 0 0.0 0.0 0.00 0.00 0.00 1022.6
20210922065103 0 44 2.0 1.0 0.00 0.00 0.00 1022.6
20210922065003 76 44 2.0 7.0 0.00 0.00 0.00 60 1022.6
20210922064903 76 44 2.0 7.0 0.00 0.00 0.00 60 1022.6
20210922064803 76 44 2.0 7.0 0.00 0.00 0.00 60 1022.5
20210922064703 76 44 2.0 7.0 0.00 0.00 0.00 60 1022.6
20210922064603 76 44 2.0 7.0 0.00 0.00 0.00 60 1022.6
20210922064503 76 44 2.0 7.0 0.00 0.00 0.00 60 1022.5
20210922064403 76 44 2.0 7.0 0.00 0.00 0.00 60 1022.5
20210922064303 76 44 2.0 7.0 0.00 0.00 0.00 60 1022.4
20210922064203 76 44 2.0 7.0 0.00 0.00 0.00 60 1022.5
20210922064101 76 44 3.0 7.0 0.00 0.00 0.00 60 1022.5
20210922064004 76 110 2.0 5.0 0.00 0.00 0.00 59 1022.5
20210922063902 76 274 2.0 5.0 0.00 0.00 0.00 59 1022.4
20210922063803 76 92 3.0 5.0 0.00 0.00 0.00 59 1022.5
20210922063702 76 224 3.0 5.0 0.00 0.00 0.00 60 1022.5
20210922063603 76 83 2.0 5.0 0.00 0.00 0.00 60 1022.5
20210922063504 76 75 1.0 5.0 0.00 0.00 0.00 60 1022.5
20210922063402 76 55 2.0 5.0 0.00 0.00 0.00 60 1022.5
20210922063304 76 44 4.0 5.0 0.00 0.00 0.00 61 1022.5
20210922063205 76 0 2.0 5.0 0.00 0.00 0.00 61 1022.4
20210922063103 77 34 1.0 2.0 0.00 0.00 0.00 60 1022.5
20210922063004 77 34 1.0 9.0 0.00 0.00 0.00 60 1022.5
20210922062903 77 34 1.0 9.0 0.00 0.00 0.00 60 1022.5
20210922062803 77 37 0.0 9.0 0.00 0.00 0.00 60 1022.5
20210922062702 77 355 0.0 9.0 0.00 0.00 0.00 60 1022.5
20210922062557 77 107 1.0 9.0 0.00 0.00 0.00 60 1022.5
20210922062452 77 107 1.0 9.0 0.00 0.00 0.00 60 1022.5
20210922062353 77 65 1.0 9.0 0.00 0.00 0.00 60 1022.5
20210922062252 77 89 2.0 9.0 0.00 0.00 0.00 60 1022.5
20210922062152 77 89 3.0 9.0 0.00 0.00 0.00 60 1022.5
20210922062052 77 72 4.0 9.0 0.00 0.00 0.00 60 1022.5
20210922061953 77 87 4.0 9.0 0.00 0.00 0.00 60 1022.4
20210922061852 77 63 4.0 9.0 0.00 0.00 0.00 60 1022.5
20210922061752 77 35 4.0 9.0 0.00 0.00 0.00 60 1022.5
20210922061651 77 85 1.0 6.0 0.00 0.00 0.00 60 1022.5
20210922061551 77 75 0.0 6.0 0.00 0.00 0.00 60 1022.6
20210922061452 77 68 0.0 6.0 0.00 0.00 0.00 60 1022.6
20210922061351 77 54 3.0 6.0 0.00 0.00 0.00 60 1022.5
20210922061251 77 54 3.0 6.0 0.00 0.00 0.00 60 1022.5
20210922061151 77 73 3.0 6.0 0.00 0.00 0.00 60 1022.5
20210922061051 77 73 4.0 6.0 0.00 0.00 0.00 60 1022.6
20210922060952 77 99 3.0 6.0 0.00 0.00 0.00 60 1022.4
20210922060850 77 355 3.0 6.0 0.00 0.00 0.00 60 1022.5
20210922060751 77 35 3.0 6.0 0.00 0.00 0.00 60 1022.5
20210922060650 77 110 2.0 5.0 0.00 0.00 0.00 60 1022.5
20210922060551 77 54 3.0 5.0 0.00 0.00 0.00 60 1022.5
20210922060451 77 76 2.0 5.0 0.00 0.00 0.00 61 1022.6
20210922060351 77 85 1.0 4.0 0.00 0.00 0.00 61 1022.5
20210922060251 77 202 1.0 4.0 0.00 0.00 0.00 61 1022.6
20210922060151 77 137 0.0 4.0 0.00 0.00 0.00 60 1022.5
20210922060124 78 159 2.0 4.0 0.00 0.00 0.00 59 1022.4
20210922055949 78 73 1.0 4.0 0.00 0.00 0.00 59 1022.5
20210922055851 78 63 2.0 4.0 0.00 0.00 0.00 60 1022.4
20210922055753 78 72 2.0 5.0 0.00 0.00 0.00 61 1022.4
20210922055651 78 127 1.0 5.0 0.00 0.00 0.00 61 1022.4
20210922055550 78 127 1.0 5.0 0.00 0.00 0.00 61 1022.5
20210922055449 78 127 1.0 5.0 0.00 0.00 0.00 61 1022.4
20210922055349 78 127 1.0 5.0 0.00 0.00 0.00 61 1022.3
20210922055249 78 127 1.0 5.0 0.00 0.00 0.00 61 1022.3
20210922055150 78 127 1.0 5.0 0.00 0.00 0.00 61 1022.3
20210922055049 78 127 1.0 5.0 0.00 0.00 0.00 61 1022.3
20210922054949 78 127 2.0 5.0 0.00 0.00 0.00 61 1022.3
20210922054848 78 127 2.0 5.0 0.00 0.00 0.00 61 1022.3
20210922054751 78 90 2.0 4.0 0.00 0.00 0.00 61 1022.2
20210922054650 78 114 2.0 4.0 0.00 0.00 0.00 61 1022.2
20210922054550 78 107 1.0 4.0 0.00 0.00 0.00 61 1022.2
20210922054448 78 39 1.0 4.0 0.00 0.00 0.00 61 1022.1
20210922054349 78 100 1.0 4.0 0.00 0.00 0.00 61 1022.1
20210922054250 78 134 2.0 4.0 0.00 0.00 0.00 62 1022.1
20210922054149 78 75 1.0 4.0 0.00 0.00 0.00 62 1022.2
20210922054049 78 147 1.0 4.0 0.00 0.00 0.00 62 1022.1
20210922053948 78 244 1.0 4.0 0.00 0.00 0.00 62 1022.2
20210922053850 78 56 1.0 4.0 0.00 0.00 0.00 62 1022.1
20210922053749 78 54 2.0 4.0 0.00 0.00 0.00 62 1022.1
20210922053649 78 54 2.0 4.0 0.00 0.00 0.00 62 1022.1
20210922053550 78 44 1.0 4.0 0.00 0.00 0.00 62 1022.1
20210922053449 78 44 2.0 4.0 0.00 0.00 0.00 62 1022.1
20210922053349 78 103 1.0 4.0 0.00 0.00 0.00 62 1022.2
20210922053251 78 75 1.0 4.0 0.00 0.00 0.00 62 1022.1
20210922053149 78 120 1.0 4.0 0.00 0.00 0.00 62 1022.1
20210922053048 78 120 1.0 4.0 0.00 0.00 0.00 63 1022.1
20210922052950 78 173 0.0 11.0 0.00 0.00 0.00 62 1022.1
20210922052848 78 90 2.0 11.0 0.00 0.00 0.00 62 1022.0
20210922052748 78 90 2.0 11.0 0.00 0.00 0.00 62 1022.1
20210922052650 78 87 2.0 11.0 0.00 0.00 0.00 62 1022.1
20210922052550 78 147 1.0 11.0 0.00 0.00 0.00 62 1022.1
20210922052448 78 149 1.0 11.0 0.00 0.00 0.00 62 1022.1
20210922052348 78 71 2.0 11.0 0.00 0.00 0.00 62 1022.0
20210922052247 78 66 2.0 11.0 0.00 0.00 0.00 62 1022.1
20210922052148 78 79 4.0 11.0 0.00 0.00 0.00 62 1022.1
20210922052049 78 92 4.0 11.0 0.00 0.00 0.00 62 1022.0
20210922051949 78 79 2.0 4.0 0.00 0.00 0.00 63 1022.1
20210922051849 78 83 2.0 4.0 0.00 0.00 0.00 63 1022.1
20210922051747 78 93 3.0 4.0 0.00 0.00 0.00 63 1022.2
20210922051649 78 111 3.0 3.0 0.00 0.00 0.00 63 1022.1
20210922051549 78 76 2.0 3.0 0.00 0.00 0.00 63 1022.2
20210922051449 78 89 2.0 3.0 0.00 0.00 0.00 63 1022.2
20210922051348 78 0 1.0 2.0 0.00 0.00 0.00 63 1022.1
20210922051248 79 66 0.0 2.0 0.00 0.00 0.00 63 1022.2
20210922051148 79 138 0.0 1.0 0.00 0.00 0.00 63 1022.1
20210922051049 79 138 1.0 1.0 0.00 0.00 0.00 63 1022.2
20210922050948 0 138 1.0 1.0 0.00 0.00 0.00 1022.1
20210922050849 0 0.0 0.0 0.00 0.00 0.00 1022.1
20210922050749 0 0.0 0.0 0.00 0.00 0.00 1022.2
20210922050646 0 0.0 0.0 0.00 0.00 0.00 1022.2
20210922050547 79 134 2.0 2.0 0.00 0.00 0.00 65 1022.1
20210922050447 79 134 2.0 2.0 0.00 0.00 0.00 65 1022.1
20210922050347 79 134 2.0 2.0 0.00 0.00 0.00 65 1022.1
20210922050247 79 134 2.0 2.0 0.00 0.00 0.00 65 1022.1
20210922050132 79 134 2.0 2.0 0.00 0.00 0.00 65 1021.9
20210922050032 79 134 2.0 3.0 0.00 0.00 0.00 65 1022.0
20210922045931 79 134 2.0 5.0 0.00 0.00 0.00 65 1022.0
20210922045803 79 134 2.0 5.0 0.00 0.00 0.00 65 1021.9
20210922045703 79 134 2.0 5.0 0.00 0.00 0.00 65 1022.0
20210922045604 79 321 2.0 5.0 0.00 0.00 0.00 65 1022.0
20210922045502 79 321 2.0 5.0 0.00 0.00 0.00 65 1022.1
20210922045403 79 87 1.0 5.0 0.00 0.00 0.00 65 1022.0
20210922045305 79 63 0.0 5.0 0.00 0.00 0.00 65 1022.1
20210922045203 79 63 2.0 5.0 0.00 0.00 0.00 65 1022.1
20210922045101 79 63 2.0 5.0 0.00 0.00 0.00 65 1022.0
20210922045004 79 93 1.0 6.0 0.00 0.00 0.00 67 1022.1
20210922044903 79 128 1.0 6.0 0.00 0.00 0.00 66 1022.0
20210922044802 79 34 1.0 6.0 0.00 0.00 0.00 66 1022.1
20210922044703 79 31 2.0 6.0 0.00 0.00 0.00 66 1022.1
20210922044602 79 31 2.0 6.0 0.00 0.00 0.00 66 1022.0
20210922044504 79 75 1.0 6.0 0.00 0.00 0.00 66 1022.1
20210922044404 79 113 2.0 6.0 0.00 0.00 0.00 67 1022.1
20210922044302 79 83 2.0 6.0 0.00 0.00 0.00 69 1022.2
20210922044204 79 73 2.0 6.0 0.00 0.00 0.00 69 1022.0
20210922044103 79 52 2.0 6.0 0.00 0.00 0.00 69 1022.1
20210922044004 79 58 1.0 6.0 0.00 0.00 0.00 69 1022.1
20210922043904 79 121 2.0 6.0 0.00 0.00 0.00 69 1022.1
20210922043804 79 120 2.0 6.0 0.00 0.00 0.00 69 1022.1
20210922043704 79 59 2.0 6.0 0.00 0.00 0.00 69 1022.1
20210922043604 79 59 2.0 6.0 0.00 0.00 0.00 68 1022.1
20210922043504 79 82 1.0 5.0 0.00 0.00 0.00 68 1022.1
20210922043402 79 82 1.0 5.0 0.00 0.00 0.00 69 1022.1
20210922043303 79 331 1.0 5.0 0.00 0.00 0.00 68 1022.0
20210922043203 79 169 1.0 5.0 0.00 0.00 0.00 69 1022.0
20210922043103 79 90 1.0 5.0 0.00 0.00 0.00 69 1022.1
20210922043003 79 90 2.0 5.0 0.00 0.00 0.00 69 1022.1
20210922042903 79 86 3.0 5.0 0.00 0.00 0.00 69 1022.1
20210922042803 79 102 2.0 5.0 0.00 0.00 0.00 71 1022.1
20210922042653 79 35 1.0 6.0 0.00 0.00 0.00 71 1022.0
20210922042552 79 102 1.0 6.0 0.00 0.00 0.00 71 1022.0
20210922042447 79 83 1.0 6.0 0.00 0.00 0.00 71 1022.0
20210922042344 79 147 0.0 6.0 0.00 0.00 0.00 71 1022.0
20210922042242 79 147 1.0 6.0 0.00 0.00 0.00 72 1022.0
20210922042144 79 93 0.0 6.0 0.00 0.00 0.00 72 1022.1
20210922042044 79 93 1.0 6.0 0.00 0.00 0.00 72 1022.0
20210922041942 79 93 1.0 6.0 0.00 0.00 0.00 72 1022.0
20210922041842 79 93 2.0 6.0 0.00 0.00 0.00 72 1022.0
20210922041743 79 107 2.0 6.0 0.00 0.00 0.00 72 1022.0
20210922041644 79 17 1.0 3.0 0.00 0.00 0.00 72 1022.0
20210922041542 79 17 1.0 3.0 0.00 0.00 0.00 73 1022.0
20210922041444 79 86 1.0 2.0 0.00 0.00 0.00 73 1022.0
20210922041342 79 86 0.0 2.0 0.00 0.00 0.00 73 1022.0
20210922041241 79 86 0.0 1.0 0.00 0.00 0.00 73 1022.1
20210922041145 79 86 0.0 1.0 0.00 0.00 0.00 73 1022.1
20210922041043 79 86 1.0 1.0 0.00 0.00 0.00 73 1022.0
20210922040943 0 69 1.0 1.0 0.00 0.00 0.00 1022.0
20210922040844 80 69 1.0 2.0 0.00 0.00 0.00 73 1022.1
20210922040744 80 69 1.0 2.0 0.00 0.00 0.00 73 1022.1
20210922040643 80 69 1.0 2.0 0.00 0.00 0.00 73 1022.1
20210922040541 80 69 1.0 2.0 0.00 0.00 0.00 73 1022.1
20210922040441 80 69 1.0 2.0 0.00 0.00 0.00 73 1022.0
20210922040341 80 69 1.0 3.0 0.00 0.00 0.00 73 1022.0
20210922040241 80 69 1.0 3.0 0.00 0.00 0.00 73 1022.1
20210922040142 80 69 1.0 3.0 0.00 0.00 0.00 73 1022.0
20210922040040 80 69 1.0 3.0 0.00 0.00 0.00 73 1022.0
20210922035940 80 69 1.0 3.0 0.00 0.00 0.00 73 1022.1
20210922035840 80 279 1.0 3.0 0.00 0.00 0.00 73 1021.9
20210922035743 80 199 1.0 5.0 0.00 0.00 0.00 73 1022.0
20210922035641 80 117 1.0 5.0 0.00 0.00 0.00 73 1022.0
20210922035540 80 117 2.0 5.0 0.00 0.00 0.00 73 1021.9
20210922035443 80 97 1.0 5.0 0.00 0.00 0.00 73 1021.9
20210922035343 80 100 1.0 5.0 0.00 0.00 0.00 73 1021.9
20210922035242 80 63 1.0 5.0 0.00 0.00 0.00 73 1021.8
20210922035142 80 63 1.0 5.0 0.00 0.00 0.00 73 1021.9
20210922035042 80 89 1.0 5.0 0.00 0.00 0.00 73 1021.9
20210922034940 80 78 2.0 5.0 0.00 0.00 0.00 73 1021.8
20210922034841 80 79 2.0 5.0 0.00 0.00 0.00 73 1021.8
20210922034741 80 97 1.0 3.0 0.00 0.00 0.00 73 1021.8
20210922034640 80 82 0.0 3.0 0.00 0.00 0.00 73 1021.7
20210922034542 80 82 1.0 3.0 0.00 0.00 0.00 73 1021.7
20210922034441 80 89 1.0 3.0 0.00 0.00 0.00 73 1021.7
20210922034341 80 102 1.0 3.0 0.00 0.00 0.00 73 1021.6
20210922034240 80 102 1.0 3.0 0.00 0.00 0.00 73 1021.6
20210922034139 80 109 0.0 3.0 0.00 0.00 0.00 73 1021.7
20210922034041 80 72 1.0 3.0 0.00 0.00 0.00 73 1021.6
20210922033941 80 72 0.0 3.0 0.00 0.00 0.00 73 1021.6
20210922033841 80 54 0.0 3.0 0.00 0.00 0.00 73 1021.6
20210922033741 80 54 0.0 3.0 0.00 0.00 0.00 73 1021.6
20210922033641 80 54 1.0 3.0 0.00 0.00 0.00 73 1021.5
20210922033541 80 54 0.0 3.0 0.00 0.00 0.00 73 1021.5
20210922033440 80 54 0.0 3.0 0.00 0.00 0.00 73 1021.5
20210922033340 80 55 1.0 3.0 0.00 0.00 0.00 73 1021.5
20210922033239 80 51 0.0 3.0 0.00 0.00 0.00 73 1021.4
20210922033140 80 109 0.0 1.0 0.00 0.00 0.00 73 1021.4
20210922033041 80 109 0.0 1.0 0.00 0.00 0.00 73 1021.4
20210922032940 80 109 0.0 1.0 0.00 0.00 0.00 73 1021.4
20210922032841 80 109 0.0 1.0 0.00 0.00 0.00 73 1021.4
20210922032741 80 109 0.0 1.0 0.00 0.00 0.00 73 1021.3
20210922032640 80 109 0.0 1.0 0.00 0.00 0.00 73 1021.3
20210922032541 80 109 1.0 1.0 0.00 0.00 0.00 73 1021.2
20210922032441 80 109 0.0 1.0 0.00 0.00 0.00 74 1021.2
20210922032341 80 78 0.0 1.0 0.00 0.00 0.00 74 1021.1
20210922032240 0 0.0 0.0 0.00 0.00 0.00 1021.2
20210922032140 0 0.0 0.0 0.00 0.00 0.00 1021.2
20210922032041 0 0.0 0.0 0.00 0.00 0.00 1021.1
20210922031939 0 0.0 0.0 0.00 0.00 0.00 1021.1
20210922031838 0 92 0.0 0.0 0.00 0.00 0.00 1021.1
20210922031739 80 92 0.0 0.0 0.00 0.00 0.00 74 1021.0
20210922031638 80 92 0.0 1.0 0.00 0.00 0.00 74 1021.0
20210922031540 80 92 0.0 1.0 0.00 0.00 0.00 74 1021.0
20210922031437 80 92 0.0 1.0 0.00 0.00 0.00 74 1021.0
20210922031337 80 92 0.0 1.0 0.00 0.00 0.00 74 1020.9
20210922031238 80 92 0.0 1.0 0.00 0.00 0.00 74 1021.0
20210922031136 80 92 0.0 1.0 0.00 0.00 0.00 74 1020.9
20210922031037 80 92 0.0 1.0 0.00 0.00 0.00 74 1020.9
20210922030937 80 92 0.0 2.0 0.00 0.00 0.00 74 1020.9
20210922030838 80 92 0.0 2.0 0.00 0.00 0.00 74 1020.8
20210922030735 80 92 0.0 2.0 0.00 0.00 0.00 74 1020.8
20210922030635 80 92 0.0 2.0 0.00 0.00 0.00 73 1020.7
20210922030536 80 92 0.0 2.0 0.00 0.00 0.00 73 1020.7
20210922030435 80 92 0.0 2.0 0.00 0.00 0.00 73 1020.7
20210922030335 80 92 0.0 2.0 0.00 0.00 0.00 73 1020.7
20210922030237 81 92 0.0 2.0 0.00 0.00 0.00 73 1020.8
20210922030137 81 92 1.0 2.0 0.00 0.00 0.00 72 1020.8
20210922030035 81 104 1.0 2.0 0.00 0.00 0.00 72 1020.8
20210922025935 81 59 0.0 1.0 0.00 0.00 0.00 72 1020.7
20210922025835 81 61 0.0 1.0 0.00 0.00 0.00 72 1020.7
20210922025736 81 61 0.0 1.0 0.00 0.00 0.00 75 1020.7
20210922025635 81 61 0.0 1.0 0.00 0.00 0.00 75 1020.7
20210922025535 81 89 1.0 1.0 0.00 0.00 0.00 75 1020.6
20210922025435 81 89 1.0 1.0 0.00 0.00 0.00 75 1020.6
20210922025334 81 87 1.0 1.0 0.00 0.00 0.00 75 1020.6
20210922025233 81 87 1.0 1.0 0.00 0.00 0.00 75 1020.6
20210922025133 81 87 1.0 1.0 0.00 0.00 0.00 75 1020.5
20210922025033 81 87 1.0 1.0 0.00 0.00 0.00 75 1020.6
20210922024936 81 87 1.0 1.0 0.00 0.00 0.00 75 1020.7
20210922024834 81 87 1.0 1.0 0.00 0.00 0.00 75 1020.6
20210922024733 0 0.0 0.0 0.00 0.00 0.00 1020.6
20210922024632 0 0.0 0.0 0.00 0.00 0.00 1020.5
20210922024533 0 0.0 0.0 0.00 0.00 0.00 1020.5
20210922024431 0 0.0 0.0 0.00 0.00 0.00 1020.5
20210922024332 0 0.0 0.0 0.00 0.00 0.00 1020.5
20210922024233 0 0.0 0.0 0.00 0.00 0.00 1020.5
20210922024131 0 0.0 0.0 0.00 0.00 0.00 1020.3
20210922024031 0 0.0 0.0 0.00 0.00 0.00 1020.5
20210922023931 0 0.0 0.0 0.00 0.00 0.00 1020.3
20210922023831 0 0.0 0.0 0.00 0.00 0.00 1020.3
20210922023731 0 0.0 0.0 0.00 0.00 0.00 1020.4
20210922023631 0 0.0 0.0 0.00 0.00 0.00 1020.3
20210922023530 0 0.0 0.0 0.00 0.00 0.00 1020.4
20210922023428 0 0.0 0.0 0.00 0.00 0.00 1020.3
20210922023329 0 0.0 0.0 0.00 0.00 0.00 1020.4
20210922023230 0 0.0 0.0 0.00 0.00 0.00 1020.4
20210922023131 0 0.0 0.0 0.00 0.00 0.00 1020.3
20210922023028 0 0.0 0.0 0.00 0.00 0.00 1020.3
20210922022927 0 23 1.0 1.0 0.00 0.00 0.00 1020.3
20210922022827 81 23 1.0 1.0 0.00 0.00 0.00 76 1020.3
20210922022727 81 23 1.0 1.0 0.00 0.00 0.00 76 1020.3
20210922022627 81 23 1.0 2.0 0.00 0.00 0.00 76 1020.3
20210922022526 81 23 1.0 2.0 0.00 0.00 0.00 76 1020.3
20210922022425 81 23 1.0 2.0 0.00 0.00 0.00 76 1020.3
20210922022325 81 23 1.0 2.0 0.00 0.00 0.00 76 1020.3
20210922022225 81 23 1.0 2.0 0.00 0.00 0.00 76 1020.3
20210922022125 81 23 1.0 2.0 0.00 0.00 0.00 76 1020.3
20210922022025 81 23 1.0 2.0 0.00 0.00 0.00 76 1020.3
20210922021925 81 23 0.0 2.0 0.00 0.00 0.00 76 1020.3
20210922021825 81 23 1.0 2.0 0.00 0.00 0.00 76 1020.2
20210922021725 81 23 1.0 2.0 0.00 0.00 0.00 77 1020.3
20210922021626 81 190 0.0 1.0 0.00 0.00 0.00 77 1020.2
20210922021525 81 190 0.0 1.0 0.00 0.00 0.00 77 1020.3
20210922021423 81 190 0.0 1.0 0.00 0.00 0.00 77 1020.1
20210922021325 80 190 0.0 1.0 0.00 0.00 0.00 77 1020.2
20210922021225 80 223 0.0 1.0 0.00 0.00 0.00 77 1020.2
20210922021125 80 223 0.0 1.0 0.00 0.00 0.00 77 1020.2
20210922021025 80 223 0.0 1.0 0.00 0.00 0.00 77 1020.2
20210922020926 80 224 0.0 1.0 0.00 0.00 0.00 77 1020.2
20210922020826 80 76 0.0 1.0 0.00 0.00 0.00 77 1020.3
20210922020724 80 76 0.0 0.0 0.00 0.00 0.00 77 1020.2
20210922020623 81 76 0.0 0.0 0.00 0.00 0.00 77 1020.2
20210922020525 81 75 0.0 0.0 0.00 0.00 0.00 77 1020.3
20210922020423 81 75 0.0 0.0 0.00 0.00 0.00 77 1020.2
20210922020324 81 75 0.0 0.0 0.00 0.00 0.00 77 1020.2
20210922020225 81 75 0.0 0.0 0.00 0.00 0.00 77 1020.2
20210922020124 81 75 0.0 0.0 0.00 0.00 0.00 77 1020.1
20210922020025 81 75 0.0 0.0 0.00 0.00 0.00 77 1020.2
20210922015923 81 75 0.0 0.0 0.00 0.00 0.00 77 1020.2
20210922015823 81 75 0.0 0.0 0.00 0.00 0.00 77 1020.3
20210922015724 81 75 0.0 0.0 0.00 0.00 0.00 77 1020.2
20210922015623 81 75 0.0 0.0 0.00 0.00 0.00 77 1020.2
20210922015522 81 75 0.0 0.0 0.00 0.00 0.00 77 1020.2
20210922015421 81 75 0.0 0.0 0.00 0.00 0.00 77 1020.2
20210922015322 81 75 0.0 0.0 0.00 0.00 0.00 77 1020.3
20210922015221 81 75 0.0 1.0 0.00 0.00 0.00 77 1020.2
20210922015121 81 75 0.0 1.0 0.00 0.00 0.00 77 1020.2
20210922015021 81 75 0.0 1.0 0.00 0.00 0.00 77 1020.2
20210922014921 81 75 0.0 1.0 0.00 0.00 0.00 76 1020.1
20210922014820 81 75 0.0 1.0 0.00 0.00 0.00 76 1020.1
20210922014722 81 75 0.0 1.0 0.00 0.00 0.00 77 1020.2
20210922014621 81 75 0.0 1.0 0.00 0.00 0.00 77 1020.1
20210922014519 81 75 0.0 1.0 0.00 0.00 0.00 77 1020.1
20210922014421 81 75 0.0 1.0 0.00 0.00 0.00 76 1020.1
20210922014322 81 75 0.0 1.0 0.00 0.00 0.00 76 1020.2
20210922014221 81 75 0.0 1.0 0.00 0.00 0.00 76 1020.0
20210922014121 81 75 0.0 1.0 0.00 0.00 0.00 76 1020.0
20210922014021 81 75 0.0 1.0 0.00 0.00 0.00 76 1020.0
20210922013920 82 75 0.0 1.0 0.00 0.00 0.00 76 1020.0
20210922013821 82 75 0.0 1.0 0.00 0.00 0.00 76 1020.0
20210922013720 82 75 0.0 1.0 0.00 0.00 0.00 76 1020.0
20210922013621 82 75 0.0 1.0 0.00 0.00 0.00 76 1019.9
20210922013521 82 75 0.0 0.0 0.00 0.00 0.00 76 1019.9
20210922013421 82 75 0.0 0.0 0.00 0.00 0.00 76 1020.0
20210922013321 82 75 0.0 0.0 0.00 0.00 0.00 75 1019.9
20210922013221 82 75 0.0 0.0 0.00 0.00 0.00 75 1019.9
20210922013121 82 75 0.0 0.0 0.00 0.00 0.00 75 1019.8
20210922013021 82 75 0.0 0.0 0.00 0.00 0.00 75 1019.9
20210922012921 82 75 0.0 0.0 0.00 0.00 0.00 75 1019.8
20210922012820 82 75 0.0 0.0 0.00 0.00 0.00 73 1019.8
20210922012721 82 75 0.0 0.0 0.00 0.00 0.00 73 1019.8
20210922012621 0 75 0.0 0.0 0.00 0.00 0.00 1019.7
20210922012520 0 75 0.0 0.0 0.00 0.00 0.00 1019.7
20210922012421 0 75 0.0 0.0 0.00 0.00 0.00 1019.7
20210922012320 0 75 0.0 0.0 0.00 0.00 0.00 1019.8
20210922012219 0 75 0.0 0.0 0.00 0.00 0.00 1019.7
20210922012120 0 75 0.0 0.0 0.00 0.00 0.00 1019.7
20210922012019 0 75 0.0 0.0 0.00 0.00 0.00 1019.7
20210922011919 0 75 0.0 0.0 0.00 0.00 0.00 1019.6
20210922011819 0 75 0.0 0.0 0.00 0.00 0.00 1019.6
20210922011720 0 75 0.0 0.0 0.00 0.00 0.00 1019.6
20210922011618 0 75 0.0 0.0 0.00 0.00 0.00 1019.5
20210922011520 0 86 0.0 0.0 0.00 0.00 0.00 1019.6
20210922011419 83 86 0.0 0.0 0.00 0.00 0.00 74 1019.6
20210922011319 83 86 0.0 1.0 0.00 0.00 0.00 74 1019.6
20210922011219 83 86 0.0 1.0 0.00 0.00 0.00 74 1019.6
20210922011116 83 86 0.0 1.0 0.00 0.00 0.00 74 1019.6
20210922011017 83 86 0.0 1.0 0.00 0.00 0.00 74 1019.5
20210922010917 83 86 0.0 1.0 0.00 0.00 0.00 74 1019.6
20210922010817 83 86 0.0 1.0 0.00 0.00 0.00 74 1019.5
20210922010717 83 86 0.0 1.0 0.00 0.00 0.00 74 1019.5
20210922010617 83 86 0.0 1.0 0.00 0.00 0.00 74 1019.5
20210922010516 83 86 0.0 1.0 0.00 0.00 0.00 74 1019.5
20210922010415 83 86 1.0 1.0 0.00 0.00 0.00 74 1019.5
20210922010316 83 86 0.0 1.0 0.00 0.00 0.00 74 1019.5
20210922010216 83 80 0.0 1.0 0.00 0.00 0.00 74 1019.5
20210922010117 84 80 0.0 1.0 0.00 0.00 0.00 74 1019.5
20210922010017 84 80 0.0 1.0 0.00 0.00 0.00 74 1019.5
20210922005916 84 80 1.0 1.0 0.00 0.00 0.00 74 1019.3
20210922005815 0 0.0 0.0 0.00 0.00 0.00 1019.4
20210922005716 0 54 1.0 2.0 0.00 0.00 0.00 1019.3
20210922005616 84 54 1.0 2.0 0.00 0.00 0.00 74 1019.3
20210922005517 84 54 1.0 2.0 0.00 0.00 0.00 74 1019.3
20210922005416 84 54 1.0 2.0 0.00 0.00 0.00 74 1019.3
20210922005312 84 54 1.0 2.0 0.00 0.00 0.00 74 1019.2
20210922005212 84 54 1.0 3.0 0.00 0.00 0.00 74 1019.3
20210922005112 84 54 1.0 3.0 0.00 0.00 0.00 74 1019.2
20210922005012 84 54 1.0 3.0 0.00 0.00 0.00 74 1019.2
20210922004913 84 54 1.0 3.0 0.00 0.00 0.00 74 1019.1
20210922004813 84 54 1.0 3.0 0.00 0.00 0.00 74 1019.1
20210922004712 84 114 0.0 3.0 0.00 0.00 0.00 74 1019.0
20210922004612 84 114 0.0 3.0 0.00 0.00 0.00 75 1019.0
20210922004511 84 114 0.0 3.0 0.00 0.00 0.00 75 1019.0
20210922004411 84 69 1.0 3.0 0.00 0.00 0.00 75 1019.0
20210922004313 84 80 1.0 3.0 0.00 0.00 0.00 75 1019.0
20210922004213 84 116 1.0 2.0 0.00 0.00 0.00 75 1018.9
20210922004113 84 96 1.0 2.0 0.00 0.00 0.00 76 1018.9
20210922004013 0 94 1.0 1.0 0.00 0.00 0.00 1018.8
20210922003910 0 0.0 0.0 0.00 0.00 0.00 1018.8
20210922003810 0 0.0 0.0 0.00 0.00 0.00 1018.8
20210922003710 0 125 0.0 0.0 0.00 0.00 0.00 1018.8
20210922003610 84 125 0.0 0.0 0.00 0.00 0.00 79 1018.8
20210922003510 84 125 0.0 1.0 0.00 0.00 0.00 79 1018.7
20210922003410 84 125 0.0 1.0 0.00 0.00 0.00 79 1018.7
20210922003308 84 125 0.0 1.0 0.00 0.00 0.00 79 1018.7
20210922003208 84 125 0.0 1.0 0.00 0.00 0.00 79 1018.6
20210922003108 84 125 0.0 1.0 0.00 0.00 0.00 79 1018.6
20210922003008 84 125 0.0 1.0 0.00 0.00 0.00 79 1018.6
20210922002908 84 125 0.0 1.0 0.00 0.00 0.00 79 1018.7
20210922002809 84 125 0.0 1.0 0.00 0.00 0.00 79 1018.6
20210922002709 84 125 0.0 1.0 0.00 0.00 0.00 79 1018.6
20210922002607 84 125 0.0 1.0 0.00 0.00 0.00 78 1018.6
20210922002508 84 124 1.0 1.0 0.00 0.00 0.00 78 1018.6
20210922002408 84 124 0.0 1.0 0.00 0.00 0.00 78 1018.5
20210922002309 84 124 0.0 1.0 0.00 0.00 0.00 78 1018.5
20210922002207 85 124 0.0 1.0 0.00 0.00 0.00 78 1018.6
20210922002108 85 124 0.0 1.0 0.00 0.00 0.00 78 1018.5
20210922002008 85 124 0.0 1.0 0.00 0.00 0.00 78 1018.5
20210922001908 85 120 0.0 1.0 0.00 0.00 0.00 78 1018.5
20210922001809 85 120 0.0 1.0 0.00 0.00 0.00 77 1018.5
20210922001709 85 118 0.0 1.0 0.00 0.00 0.00 77 1018.5
20210922001609 85 118 0.0 1.0 0.00 0.00 0.00 77 1018.5
20210922001508 85 118 0.0 1.0 0.00 0.00 0.00 77 1018.5
20210922001409 85 118 0.0 0.0 0.00 0.00 0.00 77 1018.4
20210922001309 86 118 0.0 0.0 0.00 0.00 0.00 76 1018.4
20210922001207 86 97 1.0 2.0 0.00 0.00 0.00 76 1018.3
20210922001107 86 97 1.0 2.0 0.00 0.00 0.00 76 1018.4
20210922001006 86 97 1.0 2.0 0.00 0.00 0.00 76 1018.3
20210922000904 86 97 1.0 2.0 0.00 0.00 0.00 76 1018.3
20210922000804 86 97 1.0 2.0 0.00 0.00 0.00 76 1018.2
20210922000704 86 97 1.0 3.0 0.00 0.00 0.00 76 1018.3
20210922000604 86 97 1.0 3.0 0.00 0.00 0.00 76 1018.2
20210922000505 86 97 1.0 3.0 0.00 0.00 0.00 76 1018.3
20210922000405 86 97 1.0 3.0 0.00 0.00 0.00 76 1018.2
20210922000306 86 97 1.0 3.0 0.00 0.00 0.00 76 1018.2
20210922000205 86 83 1.0 3.0 0.00 0.00 0.00 76 1018.2
20210922000105 86 83 1.0 3.0 0.00 0.00 0.00 76 1018.2
20210922000005 86 83 1.0 3.0 0.00 0.00 0.00 76 1018.1
20210921235906 86 83 1.0 3.0 0.00 0.00 0.00 76 1018.1
20210921235806 86 85 1.0 3.0 0.00 0.00 0.00 76 1018.0
20210921235705 86 56 1.0 3.0 0.00 0.00 0.00 76 1017.9
20210921235605 86 334 2.0 3.0 0.00 0.00 0.00 76 1017.9
20210921235504 86 334 0.0 3.0 0.00 0.00 0.00 76 1017.9
20210921235404 86 334 0.0 3.0 0.00 0.00 0.00 76 1017.9
20210921235305 86 334 0.0 4.0 0.00 0.00 0.00 76 1017.9
20210921235204 86 334 1.0 4.0 0.00 0.00 0.00 76 1017.8
20210921235104 86 128 1.0 4.0 0.00 0.00 0.00 75 1017.8
20210921235004 86 351 1.0 4.0 0.00 0.00 0.00 75 1017.9
20210921234904 86 92 1.0 5.0 0.00 0.00 0.00 75 1017.8
20210921234804 86 107 1.0 5.0 0.00 0.00 0.00 74 1017.8
20210921234704 86 117 1.0 5.0 0.00 0.00 0.00 74 1017.9
20210921234604 86 82 1.0 5.0 0.00 0.00 0.00 74 1017.9
20210921234505 86 82 1.0 5.0 0.00 0.00 0.00 74 1017.9
20210921234404 87 82 2.0 5.0 0.00 0.00 0.00 74 1017.8
20210921234304 87 227 1.0 5.0 0.00 0.00 0.00 73 1017.8
20210921234204 87 85 1.0 5.0 0.00 0.00 0.00 73 1017.8
20210921234104 87 85 2.0 5.0 0.00 0.00 0.00 73 1017.8
20210921234004 87 85 3.0 5.0 0.00 0.00 0.00 73 1017.8
20210921233904 87 103 1.0 4.0 0.00 0.00 0.00 73 1017.7
20210921233804 87 329 1.0 3.0 0.00 0.00 0.00 72 1017.8
20210921233706 87 303 1.0 3.0 0.00 0.00 0.00 72 1017.8
20210921233606 87 303 1.0 3.0 0.00 0.00 0.00 72 1017.7
20210921233504 87 305 1.0 3.0 0.00 0.00 0.00 71 1017.8
20210921233404 87 85 1.0 3.0 0.00 0.00 0.00 71 1017.7
20210921233304 87 307 1.0 5.0 0.00 0.00 0.00 71 1017.7
20210921233203 88 307 1.0 9.0 0.00 0.00 0.00 71 1017.7
20210921233104 88 307 1.0 9.0 0.00 0.00 0.00 71 1017.7
20210921233004 88 226 0.0 9.0 0.00 0.00 0.00 70 1017.7
20210921232904 88 141 1.0 9.0 0.00 0.00 0.00 70 1017.7
20210921232805 88 141 1.0 9.0 0.00 0.00 0.00 70 1017.7
20210921232703 88 96 1.0 9.0 0.00 0.00 0.00 69 1017.7
20210921232604 88 93 1.0 9.0 0.00 0.00 0.00 69 1017.7
20210921232503 88 102 2.0 9.0 0.00 0.00 0.00 69 1017.6
20210921232405 88 65 3.0 9.0 0.00 0.00 0.00 68 1017.7
20210921232306 88 338 2.0 9.0 0.00 0.00 0.00 68 1017.6
20210921232205 88 47 2.0 4.0 0.00 0.00 0.00 68 1017.5
20210921232103 88 48 2.0 4.0 0.00 0.00 0.00 68 1017.5
20210921232004 89 54 1.0 4.0 0.00 0.00 0.00 69 1017.4
20210921231905 89 78 1.0 2.0 0.00 0.00 0.00 68 1017.5
20210921231805 89 78 1.0 2.0 0.00 0.00 0.00 68 1017.5
20210921231705 89 78 0.0 1.0 0.00 0.00 0.00 68 1017.4
20210921231603 89 78 0.0 1.0 0.00 0.00 0.00 67 1017.3
20210921231503 89 78 0.0 0.0 0.00 0.00 0.00 66 1017.3
20210921231403 89 78 0.0 0.0 0.00 0.00 0.00 65 1017.3
20210921231306 89 78 0.0 0.0 0.00 0.00 0.00 66 1017.3
20210921231203 89 78 0.0 0.0 0.00 0.00 0.00 66 1017.3
20210921231103 89 78 0.0 0.0 0.00 0.00 0.00 66 1017.1
20210921231003 89 78 0.0 0.0 0.00 0.00 0.00 67 1017.2
20210921230903 90 78 0.0 0.0 0.00 0.00 0.00 65 1017.2
20210921230806 90 78 0.0 0.0 0.00 0.00 0.00 64 1017.2
20210921230704 90 78 0.0 0.0 0.00 0.00 0.00 64 1017.2
20210921230605 90 78 0.0 0.0 0.00 0.00 0.00 64 1017.2
20210921230503 90 78 0.0 0.0 0.00 0.00 0.00 64 1017.2
20210921230404 90 78 0.0 0.0 0.00 0.00 0.00 64 1017.3
20210921230304 90 78 0.0 0.0 0.00 0.00 0.00 63 1017.2
20210921230202 90 78 0.0 0.0 0.00 0.00 0.00 64 1017.2
20210921230103 91 78 0.0 0.0 0.00 0.00 0.00 64 1017.2
20210921230004 91 78 0.0 1.0 0.00 0.00 0.00 62 1017.2
20210921225905 91 78 0.0 1.0 0.00 0.00 0.00 62 1017.1
20210921225803 91 78 0.0 1.0 0.00 0.00 0.00 61 1017.3
20210921225703 91 78 0.0 1.0 0.00 0.00 0.00 61 1017.2
20210921225603 91 78 0.0 1.0 0.00 0.00 0.00 61 1017.3
20210921225505 92 78 0.0 1.0 0.00 0.00 0.00 61 1017.3
20210921225404 92 78 0.0 1.0 0.00 0.00 0.00 61 1017.2
20210921225305 92 78 0.0 1.0 0.00 0.00 0.00 62 1017.3
20210921225203 92 78 0.0 1.0 0.00 0.00 0.00 59 1017.2
20210921225103 92 78 0.0 1.0 0.00 0.00 0.00 60 1017.1
20210921225004 92 78 0.0 1.0 0.00 0.00 0.00 60 1017.2
20210921224904 92 78 0.0 1.0 0.00 0.00 0.00 59 1017.3
20210921224803 92 78 0.0 1.0 0.00 0.00 0.00 58 1017.2
20210921224705 92 78 0.0 1.0 0.00 0.00 0.00 58 1017.2
20210921224603 92 78 0.0 1.0 0.00 0.00 0.00 59 1017.2
20210921224502 93 78 0.0 1.0 0.00 0.00 0.00 59 1017.3
20210921224403 93 78 0.0 1.0 0.00 0.00 0.00 59 1017.2
20210921224305 93 78 0.0 1.0 0.00 0.00 0.00 59 1017.2
20210921224202 93 78 0.0 1.0 0.00 0.00 0.00 58 1017.2
20210921224103 93 78 0.0 3.0 0.00 0.00 0.00 57 1017.1
20210921224004 93 78 0.0 3.0 0.00 0.00 0.00 57 1017.1
20210921223903 93 78 0.0 3.0 0.00 0.00 0.00 56 1017.1
20210921223802 93 78 0.0 3.0 0.00 0.00 0.00 56 1017.0
20210921223702 93 78 0.0 3.0 0.00 0.00 0.00 57 1017.1
20210921223600 93 78 0.0 3.0 0.00 0.00 0.00 57 1017.1
20210921223456 93 78 0.0 3.0 0.00 0.00 0.00 57 1017.1
20210921223355 93 78 1.0 3.0 0.00 0.00 0.00 57 1017.1
20210921223250 93 78 1.0 3.0 0.00 0.00 0.00 55 1017.1
20210921223146 93 78 0.0 3.0 0.00 0.00 0.00 57 1017.1
20210921223045 93 209 0.0 2.0 0.00 0.00 0.00 55 1017.0
20210921222944 93 210 0.0 2.0 0.00 0.00 0.00 55 1017.0
20210921222841 93 210 0.0 2.0 0.00 0.00 0.00 55 1017.0
20210921222741 93 210 0.0 2.0 0.00 0.00 0.00 55 1017.0
20210921222637 94 210 1.0 3.0 0.00 0.00 0.00 55 1017.0
20210921222534 93 210 1.0 3.0 0.00 0.00 0.00 55 1017.1
20210921222432 93 210 1.0 3.0 0.00 0.00 0.00 56 1017.1
20210921222332 93 178 1.0 3.0 0.00 0.00 0.00 57 1017.1
20210921222230 93 178 0.0 3.0 0.00 0.00 0.00 57 1017.1
20210921222132 93 178 0.0 3.0 0.00 0.00 0.00 56 1017.1
20210921222032 93 178 0.0 3.0 0.00 0.00 0.00 60 1017.1
20210921221931 93 178 0.0 3.0 0.00 0.00 0.00 60 1017.1
20210921221832 93 178 1.0 3.0 0.00 0.00 0.00 58 1017.0
20210921221730 93 178 1.0 3.0 0.00 0.00 0.00 56 1017.0
20210921221631 92 166 0.0 1.0 0.00 0.00 0.00 58 1017.0
20210921221531 92 166 0.0 1.0 0.00 0.00 0.00 61 1017.1
20210921221427 92 166 0.0 2.0 0.00 0.00 0.00 61 1017.0
20210921221326 92 166 0.0 2.0 0.00 0.00 0.00 61 1017.0
20210921221226 92 166 0.0 2.0 0.00 0.00 0.00 61 1017.0
20210921221126 92 166 0.0 2.0 0.00 0.00 0.00 60 1017.1
20210921221021 93 166 0.0 2.0 0.00 0.00 0.00 60 1017.0
20210921220922 93 166 0.0 2.0 0.00 0.00 0.00 59 1017.0
20210921220818 93 166 0.0 2.0 0.00 0.00 0.00 58 1017.0
20210921220716 93 166 0.0 2.0 0.00 0.00 0.00 59 1017.1
20210921220615 93 166 0.0 2.0 0.00 0.00 0.00 58 1017.0
20210921220516 93 165 1.0 2.0 0.00 0.00 0.00 58 1017.1
20210921220412 93 166 1.0 2.0 0.00 0.00 0.00 60 1017.0
20210921220311 92 166 1.0 2.0 0.00 0.00 0.00 59 1017.0
20210921220209 92 166 0.0 1.0 0.00 0.00 0.00 62 1017.1
20210921220110 92 166 0.0 1.0 0.00 0.00 0.00 60 1017.1
20210921220005 92 166 0.0 2.0 0.00 0.00 0.00 59 1017.2
20210921215905 92 166 0.0 2.0 0.00 0.00 0.00 59 1017.1
20210921215803 92 166 0.0 2.0 0.00 0.00 0.00 59 1017.1
20210921215703 92 166 0.0 2.0 0.00 0.00 0.00 59 1017.1
20210921215601 92 166 0.0 2.0 0.00 0.00 0.00 59 1017.2
20210921215504 92 166 0.0 2.0 0.00 0.00 0.00 58 1017.1
20210921215402 93 166 0.0 2.0 0.00 0.00 0.00 60 1017.1
20210921215305 93 166 0.0 2.0 0.00 0.00 0.00 58 1017.1
20210921215202 93 166 0.0 2.0 0.00 0.00 0.00 60 1017.2
20210921215104 92 166 1.0 2.0 0.00 0.00 0.00 61 1017.2
20210921215003 92 166 0.0 2.0 0.00 0.00 0.00 61 1017.2
20210921214901 92 166 0.0 2.0 0.00 0.00 0.00 60 1017.2
20210921214804 92 166 0.0 2.0 0.00 0.00 0.00 59 1017.3
20210921214701 92 166 0.0 2.0 0.00 0.00 0.00 61 1017.3
20210921214602 92 166 0.0 2.0 0.00 0.00 0.00 61 1017.4
20210921214503 92 166 0.0 2.0 0.00 0.00 0.00 61 1017.4
20210921214402 92 166 1.0 2.0 0.00 0.00 0.00 58 1017.3
20210921214301 93 166 2.0 2.0 0.00 0.00 0.00 60 1017.3
20210921214200 93 166 1.0 2.0 0.00 0.00 0.00 60 1017.3
20210921214104 93 166 0.0 2.0 0.00 0.00 0.00 60 1017.3
20210921214001 93 166 1.0 2.0 0.00 0.00 0.00 58 1017.3
20210921213901 93 166 1.0 2.0 0.00 0.00 0.00 58 1017.3
20210921213801 93 166 1.0 2.0 0.00 0.00 0.00 57 1017.3
20210921213703 93 166 0.0 2.0 0.00 0.00 0.00 57 1017.3
20210921213601 93 166 0.0 2.0 0.00 0.00 0.00 57 1017.3
20210921213501 94 176 0.0 0.0 0.00 0.00 0.00 58 1017.2
20210921213402 94 176 0.0 0.0 0.00 0.00 0.00 57 1017.3
20210921213302 94 176 0.0 0.0 0.00 0.00 0.00 57 1017.3
20210921213202 94 176 0.0 0.0 0.00 0.00 0.00 57 1017.3
20210921213101 0 0.0 0.0 0.00 0.00 0.00 1017.2
20210921213001 0 0.0 0.0 0.00 0.00 0.00 1017.3
20210921212901 0 0.0 0.0 0.00 0.00 0.00 1017.3
20210921212800 0 0.0 0.0 0.00 0.00 0.00 1017.3
20210921212701 0 0.0 0.0 0.00 0.00 0.00 1017.3
20210921212559 0 0.0 0.0 0.00 0.00 0.00 1017.3
20210921212459 93 114 0.0 0.0 0.00 0.00 0.00 1017.3
20210921212400 93 114 0.0 1.0 0.00 0.00 0.00 57 1017.3
20210921212259 93 114 0.0 2.0 0.00 0.00 0.00 57 1017.2
20210921212159 93 114 0.0 2.0 0.00 0.00 0.00 57 1017.3
20210921212057 93 114 0.0 2.0 0.00 0.00 0.00 57 1017.3
20210921211957 93 114 0.0 2.0 0.00 0.00 0.00 57 1017.2
20210921211856 93 114 0.0 2.0 0.00 0.00 0.00 57 1017.2
20210921211757 93 114 0.0 2.0 0.00 0.00 0.00 57 1017.2
20210921211656 93 114 0.0 2.0 0.00 0.00 0.00 57 1017.2
20210921211557 93 114 0.0 2.0 0.00 0.00 0.00 57 1017.2
20210921211457 93 114 1.0 2.0 0.00 0.00 0.00 57 1017.3
20210921211355 93 114 1.0 2.0 0.00 0.00 0.00 58 1017.2
20210921211256 93 116 1.0 2.0 0.00 0.00 0.00 57 1017.3
20210921211158 93 151 0.0 2.0 0.00 0.00 0.00 58 1017.2
20210921211054 93 151 0.0 2.0 0.00 0.00 0.00 58 1017.3
20210921210957 93 151 0.0 2.0 0.00 0.00 0.00 57 1017.3
20210921210856 93 151 0.0 1.0 0.00 0.00 0.00 57 1017.3
20210921210755 93 151 0.0 2.0 0.00 0.00 0.00 56 1017.4
20210921210657 93 151 0.0 2.0 0.00 0.00 0.00 55 1017.4
20210921210557 93 151 0.0 2.0 0.00 0.00 0.00 55 1017.4
20210921210455 93 151 0.0 2.0 0.00 0.00 0.00 55 1017.4
20210921210355 93 151 0.0 2.0 0.00 0.00 0.00 55 1017.4
20210921210256 93 151 0.0 2.0 0.00 0.00 0.00 56 1017.5
20210921210156 93 148 0.0 2.0 0.00 0.00 0.00 56 1017.5
20210921210055 93 148 0.0 2.0 0.00 0.00 0.00 56 1017.4
20210921205957 93 148 0.0 3.0 0.00 0.00 0.00 56 1017.4
20210921205857 93 148 0.0 3.0 0.00 0.00 0.00 56 1017.5
20210921205756 92 148 0.0 3.0 0.00 0.00 0.00 56 1017.4
20210921205655 92 155 0.0 3.0 0.00 0.00 0.00 56 1017.4
20210921205556 92 155 0.0 3.0 0.00 0.00 0.00 57 1017.4
20210921205456 93 155 0.0 3.0 0.00 0.00 0.00 55 1017.5
20210921205356 93 155 0.0 3.0 0.00 0.00 0.00 55 1017.5
20210921205255 93 155 1.0 3.0 0.00 0.00 0.00 54 1017.5
20210921205157 93 155 1.0 3.0 0.00 0.00 0.00 54 1017.5
20210921205055 93 157 1.0 3.0 0.00 0.00 0.00 53 1017.5
20210921204955 93 158 0.0 2.0 0.00 0.00 0.00 53 1017.5
20210921204857 94 209 1.0 2.0 0.00 0.00 0.00 52 1017.6
20210921204756 94 209 1.0 2.0 0.00 0.00 0.00 52 1017.5
20210921204655 94 209 0.0 2.0 0.00 0.00 0.00 52 1017.6
20210921204556 94 204 0.0 2.0 0.00 0.00 0.00 52 1017.6
20210921204456 95 204 0.0 2.0 0.00 0.00 0.00 53 1017.5
20210921204355 95 204 1.0 2.0 0.00 0.00 0.00 52 1017.6
20210921204254 95 204 1.0 2.0 0.00 0.00 0.00 52 1017.6
20210921204157 95 245 1.0 2.0 0.00 0.00 0.00 52 1017.6
20210921204054 95 245 0.0 2.0 0.00 0.00 0.00 51 1017.6
20210921203956 95 245 0.0 2.0 0.00 0.00 0.00 53 1017.6
20210921203856 95 245 0.0 2.0 0.00 0.00 0.00 53 1017.6
20210921203758 95 245 0.0 2.0 0.00 0.00 0.00 50 1017.7
20210921203656 95 264 1.0 2.0 0.00 0.00 0.00 50 1017.6
20210921203557 95 264 0.0 3.0 0.00 0.00 0.00 51 1017.6
20210921203456 95 107 0.0 3.0 0.00 0.00 0.00 53 1017.6
20210921203356 95 107 0.0 3.0 0.00 0.00 0.00 53 1017.7
20210921203254 94 107 0.0 3.0 0.00 0.00 0.00 52 1017.7
20210921203155 94 107 0.0 3.0 0.00 0.00 0.00 52 1017.7
20210921203056 94 107 0.0 3.0 0.00 0.00 0.00 53 1017.8
20210921202955 94 107 0.0 3.0 0.00 0.00 0.00 50 1017.8
20210921202859 95 107 1.0 3.0 0.00 0.00 0.00 50 1017.7
20210921202755 94 107 1.0 3.0 0.00 0.00 0.00 50 1017.7
20210921202657 94 106 1.0 3.0 0.00 0.00 0.00 53 1017.7
20210921202555 94 125 1.0 3.0 0.00 0.00 0.00 52 1017.7
20210921202455 94 125 1.0 3.0 0.00 0.00 0.00 53 1017.6
20210921202357 93 125 1.0 3.0 0.00 0.00 0.00 56 1017.7
20210921202257 93 252 1.0 2.0 0.00 0.00 0.00 56 1017.7
20210921202154 93 254 1.0 2.0 0.00 0.00 0.00 57 1017.8
20210921202055 92 254 0.0 1.0 0.00 0.00 0.00 60 1017.8
20210921201954 92 254 0.0 1.0 0.00 0.00 0.00 57 1017.9
20210921201854 92 254 0.0 1.0 0.00 0.00 0.00 57 1017.8
20210921201755 92 254 0.0 1.0 0.00 0.00 0.00 55 1017.9
20210921201654 92 254 0.0 1.0 0.00 0.00 0.00 56 1017.9
20210921201554 92 254 0.0 2.0 0.00 0.00 0.00 58 1017.9
20210921201455 92 254 0.0 3.0 0.00 0.00 0.00 56 1017.9
20210921201355 92 254 0.0 3.0 0.00 0.00 0.00 55 1018.0
20210921201254 92 254 0.0 3.0 0.00 0.00 0.00 56 1018.0
20210921201155 92 254 0.0 3.0 0.00 0.00 0.00 55 1018.0
20210921201055 92 254 0.0 3.0 0.00 0.00 0.00 55 1018.0
20210921200955 92 254 0.0 3.0 0.00 0.00 0.00 55 1018.0
20210921200853 92 254 0.0 3.0 0.00 0.00 0.00 58 1018.0
20210921200754 93 254 0.0 3.0 0.00 0.00 0.00 55 1018.1
20210921200659 93 254 1.0 3.0 0.00 0.00 0.00 54 1018.1
20210921200555 93 254 1.0 3.0 0.00 0.00 0.00 54 1018.1
20210921200454 93 92 0.0 3.0 0.00 0.00 0.00 56 1018.1
20210921200354 93 89 0.0 3.0 0.00 0.00 0.00 54 1018.1
20210921200255 93 87 1.0 3.0 0.00 0.00 0.00 54 1018.1
20210921200154 93 89 1.0 3.0 0.00 0.00 0.00 56 1018.1
20210921200054 92 86 0.0 3.0 0.00 0.00 0.00 57 1018.1
20210921195954 92 86 0.0 3.0 0.00 0.00 0.00 59 1018.2
20210921195855 92 86 1.0 3.0 0.00 0.00 0.00 58 1018.2
20210921195756 92 86 1.0 3.0 0.00 0.00 0.00 58 1018.2
20210921195656 92 83 0.0 4.0 0.00 0.00 0.00 56 1018.2
20210921195554 92 83 0.0 4.0 0.00 0.00 0.00 57 1018.2
20210921195454 92 83 1.0 4.0 0.00 0.00 0.00 57 1018.3
20210921195355 93 83 0.0 4.0 0.00 0.00 0.00 55 1018.2
20210921195254 93 82 0.0 4.0 0.00 0.00 0.00 54 1018.3
20210921195154 94 82 0.0 4.0 0.00 0.00 0.00 54 1018.4
20210921195053 94 82 0.0 4.0 0.00 0.00 0.00 54 1018.4
20210921194955 94 82 0.0 4.0 0.00 0.00 0.00 53 1018.4
20210921194854 94 82 1.0 4.0 0.00 0.00 0.00 54 1018.5
20210921194754 94 82 2.0 4.0 0.00 0.00 0.00 55 1018.5
20210921194654 94 94 2.0 4.0 0.00 0.00 0.00 55 1018.5
20210921194555 94 148 2.0 4.0 0.00 0.00 0.00 58 1018.5
20210921194453 94 82 0.0 3.0 0.00 0.00 0.00 55 1018.6
20210921194354 94 204 0.0 3.0 0.00 0.00 0.00 55 1018.6
20210921194253 94 204 1.0 3.0 0.00 0.00 0.00 56 1018.6
20210921194153 94 204 1.0 3.0 0.00 0.00 0.00 56 1018.6
20210921194053 94 204 1.0 3.0 0.00 0.00 0.00 55 1018.6
20210921194008 94 145 1.0 3.0 0.00 0.00 0.00 57 1018.6
20210921193854 94 144 0.0 3.0 0.00 0.00 0.00 55 1018.7
20210921193754 94 144 1.0 3.0 0.00 0.00 0.00 55 1018.7
20210921193654 94 144 1.0 3.0 0.00 0.00 0.00 55 1018.6
20210921193554 94 159 0.0 3.0 0.00 0.00 0.00 55 1018.7
20210921193454 94 94 0.0 5.0 0.00 0.00 0.00 55 1018.7
20210921193353 94 94 0.0 5.0 0.00 0.00 0.00 55 1018.7
20210921193254 94 94 1.0 5.0 0.00 0.00 0.00 56 1018.7
20210921193154 94 97 1.0 5.0 0.00 0.00 0.00 56 1018.7
20210921193052 94 298 1.0 5.0 0.00 0.00 0.00 56 1018.8
20210921192950 94 296 0.0 5.0 0.00 0.00 0.00 56 1018.7
20210921192850 94 296 0.0 5.0 0.00 0.00 0.00 56 1018.8
20210921192747 94 296 1.0 5.0 0.00 0.00 0.00 56 1018.8
20210921192646 94 296 2.0 5.0 0.00 0.00 0.00 55 1018.8
20210921192545 94 262 2.0 5.0 0.00 0.00 0.00 55 1018.7
20210921192443 94 83 1.0 3.0 0.00 0.00 0.00 55 1018.7
20210921192336 94 93 1.0 4.0 0.00 0.00 0.00 55 1018.8
20210921192233 94 93 1.0 4.0 0.00 0.00 0.00 55 1018.8
20210921192132 94 258 1.0 4.0 0.00 0.00 0.00 54 1018.8
20210921192032 94 258 1.0 4.0 0.00 0.00 0.00 56 1018.8
20210921191932 94 183 0.0 4.0 0.00 0.00 0.00 55 1018.8
20210921191831 94 183 2.0 4.0 0.00 0.00 0.00 55 1018.9
20210921191732 94 183 3.0 4.0 0.00 0.00 0.00 55 1018.9
20210921191632 93 247 1.0 4.0 0.00 0.00 0.00 55 1018.9
20210921191532 93 247 1.0 4.0 0.00 0.00 0.00 55 1018.9
20210921191432 93 247 1.0 7.0 0.00 0.00 0.00 55 1018.9
20210921191330 93 202 1.0 7.0 0.00 0.00 0.00 55 1019.0
20210921191231 93 202 1.0 7.0 0.00 0.00 0.00 54 1019.0
20210921191130 93 202 1.0 7.0 0.00 0.00 0.00 53 1019.0
20210921191027 94 216 1.0 7.0 0.00 0.00 0.00 56 1019.0
20210921190926 94 234 1.0 7.0 0.00 0.00 0.00 57 1019.0
20210921190824 94 244 2.0 7.0 0.00 0.00 0.00 57 1019.0
20210921190717 94 243 1.0 7.0 0.00 0.00 0.00 57 1019.0
20210921190616 94 216 2.0 7.0 0.00 0.00 0.00 57 1019.0
20210921190514 94 216 3.0 7.0 0.00 0.00 0.00 56 1019.1
20210921190414 94 268 1.0 4.0 0.00 0.00 0.00 57 1019.1
20210921190310 94 97 0.0 3.0 0.00 0.00 0.00 59 1019.2
20210921190209 94 97 1.0 3.0 0.00 0.00 0.00 58 1019.2
20210921190108 94 96 2.0 3.0 0.00 0.00 0.00 58 1019.2
20210921190003 94 240 1.0 3.0 0.00 0.00 0.00 57 1019.2
20210921185902 94 333 1.0 2.0 0.00 0.00 0.00 57 1019.2
20210921185802 94 142 1.0 2.0 0.00 0.00 0.00 57 1019.2
20210921185701 94 142 1.0 3.0 0.00 0.00 0.00 58 1019.2
20210921185604 94 149 1.0 3.0 0.00 0.00 0.00 58 1019.2
20210921185502 94 149 1.0 3.0 0.00 0.00 0.00 58 1019.2
20210921185402 94 276 1.0 3.0 0.00 0.00 0.00 60 1019.2
20210921185305 94 276 1.0 3.0 0.00 0.00 0.00 59 1019.2
20210921185202 93 276 0.0 3.0 0.00 0.00 0.00 60 1019.2
20210921185101 93 281 1.0 3.0 0.00 0.00 0.00 62 1019.3
20210921185003 94 158 1.0 3.0 0.00 0.00 0.00 62 1019.2
20210921184903 94 158 1.0 3.0 0.00 0.00 0.00 62 1019.2
20210921184803 94 157 0.0 3.0 0.00 0.00 0.00 62 1019.2
20210921184702 94 141 0.0 2.0 0.00 0.00 0.00 62 1019.2
20210921184602 93 141 0.0 2.0 0.00 0.00 0.00 63 1019.3
20210921184502 93 141 0.0 2.0 0.00 0.00 0.00 62 1019.3
20210921184403 92 141 1.0 2.0 0.00 0.00 0.00 61 1019.3
20210921184302 92 141 1.0 2.0 0.00 0.00 0.00 61 1019.4
20210921184202 92 141 1.0 2.0 0.00 0.00 0.00 62 1019.4
20210921184102 92 110 1.0 2.0 0.00 0.00 0.00 62 1019.5
20210921184005 92 265 1.0 2.0 0.00 0.00 0.00 63 1019.5
20210921183902 92 278 0.0 2.0 0.00 0.00 0.00 66 1019.4
20210921183803 91 238 0.0 2.0 0.00 0.00 0.00 65 1019.5
20210921183702 91 238 1.0 2.0 0.00 0.00 0.00 65 1019.5
20210921183601 91 238 1.0 4.0 0.00 0.00 0.00 64 1019.5
20210921183502 91 238 1.0 4.0 0.00 0.00 0.00 66 1019.6
20210921183403 91 238 0.0 4.0 0.00 0.00 0.00 66 1019.5
20210921183303 91 237 0.0 4.0 0.00 0.00 0.00 65 1019.4
20210921183201 90 237 0.0 4.0 0.00 0.00 0.00 65 1019.5
20210921183103 90 237 0.0 4.0 0.00 0.00 0.00 65 1019.4
20210921183003 90 237 0.0 4.0 0.00 0.00 0.00 65 1019.5
20210921182902 90 238 0.0 4.0 0.00 0.00 0.00 67 1019.5
20210921182801 90 238 1.0 4.0 0.00 0.00 0.00 65 1019.5
20210921182703 91 238 1.0 4.0 0.00 0.00 0.00 65 1019.5
20210921182603 91 302 1.0 2.0 0.00 0.00 0.00 65 1019.4
20210921182502 91 302 1.0 2.0 0.00 0.00 0.00 64 1019.4
20210921182401 91 302 0.0 3.0 0.00 0.00 0.00 65 1019.5
20210921182306 92 302 1.0 3.0 0.00 0.00 0.00 65 1019.5
20210921182204 92 302 1.0 3.0 0.00 0.00 0.00 65 1019.5
20210921182103 91 302 0.0 3.0 0.00 0.00 0.00 65 1019.5
20210921182003 91 300 0.0 3.0 0.00 0.00 0.00 66 1019.6
20210921181903 91 300 0.0 3.0 0.00 0.00 0.00 66 1019.5
20210921181802 91 303 0.0 3.0 0.00 0.00 0.00 65 1019.5
20210921181704 91 303 0.0 3.0 0.00 0.00 0.00 64 1019.6
20210921181602 92 303 1.0 3.0 0.00 0.00 0.00 64 1019.5
20210921181503 92 303 1.0 5.0 0.00 0.00 0.00 64 1019.6
20210921181402 92 221 1.0 5.0 0.00 0.00 0.00 64 1019.6
20210921181304 92 221 1.0 5.0 0.00 0.00 0.00 64 1019.5
20210921181202 92 221 1.0 5.0 0.00 0.00 0.00 63 1019.6
20210921181102 92 227 1.0 5.0 0.00 0.00 0.00 63 1019.6
20210921181002 92 227 1.0 5.0 0.00 0.00 0.00 63 1019.6
20210921180903 92 227 1.0 5.0 0.00 0.00 0.00 63 1019.6
20210921180802 92 227 1.0 5.0 0.00 0.00 0.00 63 1019.6
20210921180701 92 227 2.0 5.0 0.00 0.00 0.00 62 1019.6
20210921180604 92 269 1.0 5.0 0.00 0.00 0.00 61 1019.7
20210921180504 93 185 1.0 3.0 0.00 0.00 0.00 62 1019.7
20210921180401 93 185 1.0 3.0 0.00 0.00 0.00 63 1019.7
20210921180301 93 157 1.0 3.0 0.00 0.00 0.00 63 1019.7
20210921180202 92 157 1.0 3.0 0.00 0.00 0.00 64 1019.6
20210921180101 92 186 1.0 3.0 0.00 0.00 0.00 63 1019.7
20210921180003 92 185 1.0 3.0 0.00 0.00 0.00 64 1019.7
20210921175902 92 185 1.0 3.0 0.00 0.00 0.00 63 1019.7
20210921175803 92 152 1.0 3.0 0.00 0.00 0.00 62 1019.7
20210921175703 92 144 1.0 3.0 0.00 0.00 0.00 62 1019.8
20210921175602 92 140 1.0 3.0 0.00 0.00 0.00 62 1019.7
20210921175502 92 250 1.0 3.0 0.00 0.00 0.00 62 1019.8
20210921175404 92 231 1.0 3.0 0.00 0.00 0.00 64 1019.8
20210921175305 92 231 1.0 3.0 0.00 0.00 0.00 63 1019.9
20210921175203 92 147 2.0 3.0 0.00 0.00 0.00 65 1019.8
20210921175101 92 250 1.0 3.0 0.00 0.00 0.00 63 1019.8
20210921175002 92 221 0.0 3.0 0.00 0.00 0.00 63 1019.8
20210921174903 92 221 1.0 3.0 0.00 0.00 0.00 65 1019.8
20210921174804 92 221 1.0 4.0 0.00 0.00 0.00 65 1019.8
20210921174703 92 221 1.0 4.0 0.00 0.00 0.00 65 1019.8
20210921174604 92 196 2.0 4.0 0.00 0.00 0.00 65 1019.8
20210921174505 91 176 1.0 4.0 0.00 0.00 0.00 67 1019.8
20210921174403 91 220 0.0 4.0 0.00 0.00 0.00 65 1019.8
20210921174302 91 210 1.0 4.0 0.00 0.00 0.00 65 1019.9
20210921174204 91 210 1.0 4.0 0.00 0.00 0.00 65 1019.8
20210921174105 91 183 2.0 4.0 0.00 0.00 0.00 66 1019.8
20210921174004 91 162 2.0 4.0 0.00 0.00 0.00 66 1019.9
20210921173903 91 295 2.0 4.0 0.00 0.00 0.00 66 1019.9
20210921173803 91 226 1.0 3.0 0.00 0.00 0.00 65 1019.9
20210921173703 91 161 1.0 3.0 0.00 0.00 0.00 66 1019.9
20210921173603 91 154 1.0 3.0 0.00 0.00 0.00 65 1019.9
20210921173503 91 154 2.0 3.0 0.00 0.00 0.00 66 1020.0
20210921173403 91 183 2.0 3.0 0.00 0.00 0.00 65 1020.0
20210921173302 91 282 2.0 3.0 0.00 0.00 0.00 66 1020.0
20210921173205 91 233 2.0 3.0 0.00 0.00 0.00 65 1020.0
20210921173103 91 299 1.0 2.0 0.00 0.00 0.00 67 1020.0
20210921173005 91 338 0.0 2.0 0.00 0.00 0.00 67 1020.0
20210921172903 91 338 1.0 2.0 0.00 0.00 0.00 68 1020.0
20210921172802 91 340 1.0 2.0 0.00 0.00 0.00 68 1020.0
20210921172702 90 340 1.0 2.0 0.00 0.00 0.00 69 1020.1
20210921172602 90 293 1.0 2.0 0.00 0.00 0.00 70 1020.1
20210921172504 89 190 1.0 2.0 0.00 0.00 0.00 70 1020.1
20210921172402 89 190 1.0 2.0 0.00 0.00 0.00 70 1020.0
20210921172305 89 278 1.0 2.0 0.00 0.00 0.00 72 1020.1
20210921172202 89 278 1.0 2.0 0.00 0.00 0.00 73 1020.1
20210921172102 89 274 1.0 2.0 0.00 0.00 0.00 72 1020.1
20210921172012 89 274 1.0 2.0 0.00 0.00 0.00 72 1020.0
20210921171902 89 276 1.0 2.0 0.00 0.00 0.00 72 1020.1
20210921171804 89 276 1.0 2.0 0.00 0.00 0.00 71 1020.1
20210921171703 89 276 1.0 2.0 0.00 0.00 0.00 71 1020.1
20210921171602 89 276 1.0 2.0 0.00 0.00 0.00 71 1020.0
20210921171504 89 276 1.0 2.0 0.00 0.00 0.00 71 1020.0
20210921171403 89 276 1.0 2.0 0.00 0.00 0.00 73 1020.1
20210921171303 88 275 1.0 2.0 0.00 0.00 0.00 73 1020.1
20210921171205 88 275 1.0 2.0 0.00 0.00 0.00 73 1020.1
20210921171103 88 275 1.0 3.0 0.00 0.00 0.00 72 1020.1
20210921171005 88 275 1.0 3.0 0.00 0.00 0.00 72 1020.0
20210921170903 88 275 1.0 3.0 0.00 0.00 0.00 71 1020.1
20210921170805 88 275 1.0 3.0 0.00 0.00 0.00 71 1020.1
20210921170702 89 275 1.0 3.0 0.00 0.00 0.00 71 1020.1
20210921170601 89 269 0.0 3.0 0.00 0.00 0.00 69 1020.1
20210921170503 89 268 1.0 3.0 0.00 0.00 0.00 69 1020.0
20210921170403 89 278 2.0 3.0 0.00 0.00 0.00 70 1020.1
20210921170304 89 278 2.0 3.0 0.00 0.00 0.00 70 1020.1
20210921170201 89 276 1.0 5.0 0.00 0.00 0.00 70 1020.0
20210921170104 89 276 1.0 5.0 0.00 0.00 0.00 70 1020.0
20210921170002 89 275 1.0 5.0 0.00 0.00 0.00 71 1020.0
20210921165903 89 209 1.0 5.0 0.00 0.00 0.00 73 1020.0
20210921165803 89 254 1.0 5.0 0.00 0.00 0.00 72 1020.0
20210921165702 89 147 1.0 5.0 0.00 0.00 0.00 73 1019.9
20210921165600 89 241 1.0 5.0 0.00 0.00 0.00 73 1020.0
20210921165458 89 227 1.0 5.0 0.00 0.00 0.00 73 1020.0
20210921165353 88 152 2.0 5.0 0.00 0.00 0.00 73 1020.0
20210921165254 88 152 2.0 5.0 0.00 0.00 0.00 73 1020.0
20210921165150 88 312 2.0 4.0 0.00 0.00 0.00 73 1019.9
20210921165051 89 338 1.0 4.0 0.00 0.00 0.00 74 1019.9
20210921164949 88 288 1.0 4.0 0.00 0.00 0.00 74 1019.9
20210921164850 88 269 1.0 4.0 0.00 0.00 0.00 74 1019.9
20210921164749 88 158 2.0 4.0 0.00 0.00 0.00 75 1019.9
20210921164649 88 196 1.0 4.0 0.00 0.00 0.00 75 1019.9
20210921164550 88 152 1.0 4.0 0.00 0.00 0.00 74 1019.8
20210921164450 87 120 1.0 4.0 0.00 0.00 0.00 74 1019.8
20210921164350 87 314 1.0 4.0 0.00 0.00 0.00 75 1019.9
20210921164250 87 0 2.0 4.0 0.00 0.00 0.00 74 1019.8
20210921164151 87 176 1.0 4.0 0.00 0.00 0.00 77 1019.8
20210921164050 87 165 1.0 3.0 0.00 0.00 0.00 77 1019.8
20210921163949 87 165 1.0 3.0 0.00 0.00 0.00 76 1019.8
20210921163850 87 141 1.0 3.0 0.00 0.00 0.00 76 1019.8
20210921163750 87 145 0.0 3.0 0.00 0.00 0.00 76 1019.9
20210921163650 87 264 0.0 3.0 0.00 0.00 0.00 76 1019.8
20210921163550 87 264 1.0 4.0 0.00 0.00 0.00 76 1019.9
20210921163450 87 264 2.0 4.0 0.00 0.00 0.00 75 1019.9
20210921163349 87 127 1.0 4.0 0.00 0.00 0.00 76 1019.9
20210921163249 87 269 1.0 4.0 0.00 0.00 0.00 78 1019.9
20210921163150 87 261 1.0 4.0 0.00 0.00 0.00 78 1019.9
20210921163049 87 262 1.0 4.0 0.00 0.00 0.00 78 1019.9
20210921162950 87 261 0.0 4.0 0.00 0.00 0.00 78 1019.9
20210921162850 86 261 1.0 4.0 0.00 0.00 0.00 78 1020.0
20210921162748 86 261 2.0 4.0 0.00 0.00 0.00 78 1019.9
20210921162649 86 212 1.0 4.0 0.00 0.00 0.00 78 1019.9
20210921162549 86 199 1.0 3.0 0.00 0.00 0.00 79 1019.9
20210921162449 86 199 1.0 3.0 0.00 0.00 0.00 80 1019.9
20210921162350 86 197 1.0 3.0 0.00 0.00 0.00 79 1020.0
20210921162249 86 107 1.0 3.0 0.00 0.00 0.00 80 1019.9
20210921162149 86 254 1.0 3.0 0.00 0.00 0.00 80 1019.9
20210921162048 85 255 2.0 3.0 0.00 0.00 0.00 80 1019.9
20210921161948 86 231 1.0 2.0 0.00 0.00 0.00 80 1020.0
20210921161849 86 231 1.0 2.0 0.00 0.00 0.00 80 1019.9
20210921161749 86 231 1.0 2.0 0.00 0.00 0.00 80 1020.0
20210921161649 86 231 1.0 4.0 0.00 0.00 0.00 80 1020.0
20210921161549 86 227 0.0 4.0 0.00 0.00 0.00 81 1020.0
20210921161449 86 283 0.0 4.0 0.00 0.00 0.00 82 1019.9
20210921161348 86 285 0.0 4.0 0.00 0.00 0.00 82 1020.0
20210921161249 85 285 1.0 4.0 0.00 0.00 0.00 82 1019.9
20210921161147 85 285 1.0 4.0 0.00 0.00 0.00 82 1019.9
20210921161046 85 285 1.0 4.0 0.00 0.00 0.00 82 1020.0
20210921160944 85 274 1.0 4.0 0.00 0.00 0.00 82 1019.9
20210921160842 85 274 2.0 4.0 0.00 0.00 0.00 82 1019.9
20210921160741 85 274 2.0 4.0 0.00 0.00 0.00 82 1020.1
20210921160642 85 254 1.0 3.0 0.00 0.00 0.00 82 1020.0
20210921160539 85 252 0.0 2.0 0.00 0.00 0.00 82 1020.0
20210921160432 85 254 0.0 2.0 0.00 0.00 0.00 82 1020.0
20210921160331 85 254 1.0 2.0 0.00 0.00 0.00 81 1020.0
20210921160232 85 251 1.0 2.0 0.00 0.00 0.00 81 1020.0
20210921160131 85 247 1.0 2.0 0.00 0.00 0.00 81 1020.0
20210921160031 85 233 0.0 2.0 0.00 0.00 0.00 81 1020.0
20210921155931 86 233 1.0 2.0 0.00 0.00 0.00 81 1020.1
20210921155831 86 233 1.0 2.0 0.00 0.00 0.00 81 1020.1
20210921155730 86 186 1.0 2.0 0.00 0.00 0.00 81 1020.0
20210921155632 86 244 1.0 4.0 0.00 0.00 0.00 81 1020.0
20210921155527 86 243 1.0 4.0 0.00 0.00 0.00 82 1020.0
20210921155425 85 243 1.0 4.0 0.00 0.00 0.00 82 1020.0
20210921155313 85 238 1.0 6.0 0.00 0.00 0.00 83 1020.0
20210921155210 85 257 0.0 6.0 0.00 0.00 0.00 83 1020.0
20210921155105 85 258 0.0 6.0 0.00 0.00 0.00 84 1020.0
20210921155005 85 258 1.0 6.0 0.00 0.00 0.00 84 1019.9
20210921154903 84 259 1.0 6.0 0.00 0.00 0.00 84 1020.0
20210921154802 84 283 2.0 6.0 0.00 0.00 0.00 84 1020.0
20210921154703 84 281 2.0 6.0 0.00 0.00 0.00 84 1020.0
20210921154604 84 323 1.0 6.0 0.00 0.00 0.00 84 1020.0
20210921154503 84 178 2.0 6.0 0.00 0.00 0.00 84 1020.0
20210921154402 84 197 2.0 6.0 0.00 0.00 0.00 85 1020.0
20210921154303 84 285 0.0 4.0 0.00 0.00 0.00 85 1020.0
20210921154202 84 283 1.0 4.0 0.00 0.00 0.00 84 1020.1
20210921154104 84 283 2.0 4.0 0.00 0.00 0.00 84 1020.0
20210921154002 84 252 1.0 3.0 0.00 0.00 0.00 84 1020.0
20210921153903 84 288 1.0 3.0 0.00 0.00 0.00 84 1020.0
20210921153802 84 288 2.0 3.0 0.00 0.00 0.00 84 1019.9
20210921153702 84 241 1.0 3.0 0.00 0.00 0.00 85 1019.9
20210921153604 84 269 0.0 3.0 0.00 0.00 0.00 86 1019.9
20210921153504 84 213 0.0 3.0 0.00 0.00 0.00 86 1019.9
20210921153404 84 213 1.0 3.0 0.00 0.00 0.00 86 1019.9
20210921153303 83 213 1.0 3.0 0.00 0.00 0.00 86 1019.9
20210921153202 83 206 2.0 3.0 0.00 0.00 0.00 86 1019.9
20210921153102 83 247 1.0 3.0 0.00 0.00 0.00 87 1019.9
20210921153005 83 259 1.0 3.0 0.00 0.00 0.00 87 1019.9
20210921152855 83 259 2.0 6.0 0.00 0.00 0.00 86 1019.9
20210921152753 83 241 1.0 6.0 0.00 0.00 0.00 86 1019.8
20210921152652 83 255 1.0 6.0 0.00 0.00 0.00 87 1019.9
20210921152548 83 248 0.0 6.0 0.00 0.00 0.00 87 1019.8
20210921152448 83 248 0.0 6.0 0.00 0.00 0.00 87 1019.8
20210921152349 83 248 0.0 6.0 0.00 0.00 0.00 87 1019.8
20210921152248 83 248 0.0 6.0 0.00 0.00 0.00 87 1019.8
20210921152147 83 248 0.0 6.0 0.00 0.00 0.00 88 1019.8
20210921152048 83 248 2.0 6.0 0.00 0.00 0.00 88 1019.7
20210921151948 83 248 2.0 6.0 0.00 0.00 0.00 88 1019.8
20210921151848 83 158 1.0 3.0 0.00 0.00 0.00 89 1019.8
20210921151747 82 157 1.0 3.0 0.00 0.00 0.00 89 1019.7
20210921151648 82 157 2.0 3.0 0.00 0.00 0.00 90 1019.7
20210921151549 82 152 1.0 2.0 0.00 0.00 0.00 90 1019.7
20210921151448 82 254 1.0 2.0 0.00 0.00 0.00 90 1019.7
20210921151347 81 254 0.0 2.0 0.00 0.00 0.00 90 1019.7
20210921151247 81 254 0.0 2.0 0.00 0.00 0.00 90 1019.7
20210921151149 81 244 0.0 0.0 0.00 0.00 0.00 90 1019.8
20210921151048 81 190 0.0 0.0 0.00 0.00 0.00 90 1019.7
20210921150947 81 190 0.0 0.0 0.00 0.00 0.00 90 1019.7
20210921150849 81 190 0.0 0.0 0.00 0.00 0.00 90 1019.7
20210921150748 81 190 0.0 0.0 0.00 0.00 0.00 90 1019.7
20210921150647 81 190 0.0 0.0 0.00 0.00 0.00 91 1019.7
20210921150547 81 190 0.0 0.0 0.00 0.00 0.00 91 1019.6
20210921150449 81 190 0.0 0.0 0.00 0.00 0.00 91 1019.6
20210921150348 81 190 0.0 0.0 0.00 0.00 0.00 91 1019.6
20210921150249 81 250 0.0 0.0 0.00 0.00 0.00 91 1019.6
20210921150148 81 250 0.0 0.0 0.00 0.00 0.00 91 1019.6
20210921150047 81 250 0.0 2.0 0.00 0.00 0.00 92 1019.6
20210921145947 81 250 0.0 2.0 0.00 0.00 0.00 92 1019.5
20210921145848 81 250 0.0 2.0 0.00 0.00 0.00 92 1019.6
20210921145747 81 250 0.0 2.0 0.00 0.00 0.00 92 1019.6
20210921145647 81 250 0.0 2.0 0.00 0.00 0.00 92 1019.5
20210921145547 81 250 0.0 2.0 0.00 0.00 0.00 92 1019.5
20210921145447 81 250 0.0 2.0 0.00 0.00 0.00 93 1019.6
20210921145347 81 250 0.0 2.0 0.00 0.00 0.00 93 1019.5
20210921145248 81 251 0.0 3.0 0.00 0.00 0.00 93 1019.5
20210921145148 81 251 1.0 3.0 0.00 0.00 0.00 93 1019.4
20210921145048 81 251 0.0 3.0 0.00 0.00 0.00 93 1019.3
20210921144946 81 251 0.0 3.0 0.00 0.00 0.00 94 1019.4
20210921144846 80 251 0.0 3.0 0.00 0.00 0.00 94 1019.3
20210921144748 80 251 0.0 3.0 0.00 0.00 0.00 94 1019.3
20210921144646 80 251 0.0 3.0 0.00 0.00 0.00 94 1019.4
20210921144544 80 251 0.0 3.0 0.00 0.00 0.00 94 1019.4
20210921144443 80 251 1.0 3.0 0.00 0.00 0.00 94 1019.3
20210921144342 80 251 1.0 3.0 0.00 0.00 0.00 94 1019.3
20210921144243 80 357 0.0 2.0 0.00 0.00 0.00 94 1019.3
20210921144134 80 357 1.0 2.0 0.00 0.00 0.00 94 1019.3
20210921144034 80 357 1.0 2.0 0.00 0.00 0.00 94 1019.2
20210921143933 80 244 0.0 2.0 0.00 0.00 0.00 94 1019.2
20210921143831 80 243 0.0 1.0 0.00 0.00 0.00 94 1019.3
20210921143731 80 243 0.0 1.0 0.00 0.00 0.00 94 1019.2
20210921143632 80 243 0.0 1.0 0.00 0.00 0.00 94 1019.2
20210921143532 80 244 0.0 1.0 0.00 0.00 0.00 95 1019.2
20210921143425 80 244 0.0 2.0 0.00 0.00 0.00 95 1019.2
20210921143324 80 240 0.0 3.0 0.00 0.00 0.00 95 1019.2
20210921143223 80 240 0.0 3.0 0.00 0.00 0.00 95 1019.1
20210921143120 80 240 0.0 3.0 0.00 0.00 0.00 95 1019.1
20210921143019 79 240 0.0 3.0 0.00 0.00 0.00 95 1019.1
20210921142916 79 241 0.0 3.0 0.00 0.00 0.00 95 1019.1
20210921142815 79 241 0.0 3.0 0.00 0.00 0.00 95 1019.0
20210921142712 79 241 0.0 3.0 0.00 0.00 0.00 95 1019.1
20210921142611 79 244 1.0 3.0 0.00 0.00 0.00 95 1019.0
20210921142510 79 244 1.0 3.0 0.00 0.00 0.00 95 1019.1
20210921142406 79 233 1.0 2.0 0.00 0.00 0.00 95 1019.1
20210921142306 79 233 0.0 2.0 0.00 0.00 0.00 95 1019.0
20210921142202 79 219 0.0 0.0 0.00 0.00 0.00 95 1019.0
20210921142105 79 219 0.0 0.0 0.00 0.00 0.00 95 1019.0
20210921142004 79 219 0.0 0.0 0.00 0.00 0.00 95 1019.0
20210921141901 79 219 0.0 1.0 0.00 0.00 0.00 95 1019.0
20210921141802 79 219 0.0 1.0 0.00 0.00 0.00 95 1019.0
20210921141706 79 223 0.0 1.0 0.00 0.00 0.00 95 1019.0
20210921141602 79 223 0.0 1.0 0.00 0.00 0.00 95 1018.9
20210921141502 79 223 0.0 1.0 0.00 0.00 0.00 95 1018.9
20210921141403 79 223 0.0 1.0 0.00 0.00 0.00 95 1019.0
20210921141302 79 223 0.0 2.0 0.00 0.00 0.00 95 1018.9
20210921141203 79 223 0.0 2.0 0.00 0.00 0.00 95 1018.9
20210921141102 79 223 0.0 2.0 0.00 0.00 0.00 95 1018.9
20210921141003 79 223 0.0 2.0 0.00 0.00 0.00 95 1018.9
20210921140904 79 200 0.0 2.0 0.00 0.00 0.00 95 1018.9
20210921140803 79 200 0.0 2.0 0.00 0.00 0.00 95 1018.9
20210921140703 79 200 0.0 2.0 0.00 0.00 0.00 95 1018.8
20210921140603 79 200 0.0 2.0 0.00 0.00 0.00 95 1018.8
20210921140503 79 202 0.0 2.0 0.00 0.00 0.00 95 1018.8
20210921140403 79 202 0.0 2.0 0.00 0.00 0.00 95 1018.8
20210921140302 79 203 0.0 2.0 0.00 0.00 0.00 95 1018.8
20210921140202 79 157 0.0 0.0 0.00 0.00 0.00 95 1018.8
20210921140102 79 157 0.0 0.0 0.00 0.00 0.00 95 1018.8
20210921140003 79 157 0.0 0.0 0.00 0.00 0.00 95 1018.8
20210921135904 79 157 0.0 0.0 0.00 0.00 0.00 95 1018.8
20210921135802 79 157 0.0 0.0 0.00 0.00 0.00 95 1018.8
20210921135702 79 213 0.0 0.0 0.00 0.00 0.00 95 1018.8
20210921135604 79 213 0.0 0.0 0.00 0.00 0.00 95 1018.8
20210921135502 79 213 0.0 0.0 0.00 0.00 0.00 95 1018.7
20210921135401 79 213 0.0 0.0 0.00 0.00 0.00 95 1018.7
20210921135306 79 213 0.0 0.0 0.00 0.00 0.00 95 1018.6
20210921135202 79 213 0.0 0.0 0.00 0.00 0.00 95 1018.7
20210921135102 79 213 0.0 0.0 0.00 0.00 0.00 95 1018.7
20210921135002 79 213 0.0 0.0 0.00 0.00 0.00 95 1018.6
20210921134902 79 213 0.0 0.0 0.00 0.00 0.00 95 1018.6
20210921134804 79 213 0.0 0.0 0.00 0.00 0.00 95 1018.6
20210921134703 79 213 0.0 0.0 0.00 0.00 0.00 95 1018.6
20210921134603 79 213 0.0 0.0 0.00 0.00 0.00 95 1018.7
20210921134502 78 213 0.0 0.0 0.00 0.00 0.00 95 1018.6
20210921134401 78 213 0.0 0.0 0.00 0.00 0.00 95 1018.6
20210921134301 78 213 0.0 0.0 0.00 0.00 0.00 95 1018.6
20210921134204 78 213 0.0 0.0 0.00 0.00 0.00 95 1018.5
20210921134101 78 213 0.0 0.0 0.00 0.00 0.00 95 1018.6
20210921134002 78 213 0.0 0.0 0.00 0.00 0.00 95 1018.4
20210921133903 78 213 0.0 0.0 0.00 0.00 0.00 95 1018.5
20210921133802 78 213 0.0 0.0 0.00 0.00 0.00 95 1018.5
20210921133702 78 213 0.0 0.0 0.00 0.00 0.00 95 1018.5
20210921133603 78 213 0.0 0.0 0.00 0.00 0.00 95 1018.4
20210921133502 78 213 0.0 0.0 0.00 0.00 0.00 95 1018.5
20210921133403 78 213 0.0 0.0 0.00 0.00 0.00 95 1018.4
20210921133302 78 213 0.0 0.0 0.00 0.00 0.00 95 1018.4
20210921133204 78 213 0.0 0.0 0.00 0.00 0.00 95 1018.4
20210921133105 78 213 0.0 0.0 0.00 0.00 0.00 95 1018.4
20210921133002 78 213 0.0 0.0 0.00 0.00 0.00 95 1018.3
20210921132902 78 213 0.0 0.0 0.00 0.00 0.00 95 1018.2
20210921132801 78 213 0.0 0.0 0.00 0.00 0.00 95 1018.3
20210921132702 78 213 0.0 0.0 0.00 0.00 0.00 95 1018.3
20210921132604 78 213 0.0 0.0 0.00 0.00 0.00 95 1018.3
20210921132503 78 213 0.0 0.0 0.00 0.00 0.00 95 1018.3
20210921132402 78 213 0.0 0.0 0.00 0.00 0.00 95 1018.3
20210921132305 78 213 0.0 0.0 0.00 0.00 0.00 95 1018.3
20210921132204 78 213 0.0 0.0 0.00 0.00 0.00 95 1018.3
20210921132103 78 213 0.0 0.0 0.00 0.00 0.00 95 1018.3
20210921132002 78 213 0.0 0.0 0.00 0.00 0.00 95 1018.2
20210921131903 78 213 0.0 0.0 0.00 0.00 0.00 95 1018.3
20210921131802 78 213 0.0 0.0 0.00 0.00 0.00 95 1018.2
20210921131703 78 213 0.0 0.0 0.00 0.00 0.00 95 1018.2
20210921131604 78 213 0.0 0.0 0.00 0.00 0.00 95 1018.2
20210921131504 78 213 0.0 0.0 0.00 0.00 0.00 95 1018.2
20210921131402 78 213 0.0 0.0 0.00 0.00 0.00 95 1018.2
20210921131301 78 213 0.0 0.0 0.00 0.00 0.00 95 1018.1
20210921131202 78 213 0.0 0.0 0.00 0.00 0.00 95 1018.1
20210921131105 78 213 0.0 0.0 0.00 0.00 0.00 95 1018.1
20210921131002 78 213 0.0 0.0 0.00 0.00 0.00 95 1018.0
20210921130902 78 213 0.0 0.0 0.00 0.00 0.00 95 1018.1
20210921130802 78 213 0.0 0.0 0.00 0.00 0.00 95 1018.1
20210921130701 78 213 0.0 0.0 0.00 0.00 0.00 95 1018.1
20210921130605 78 213 0.0 0.0 0.00 0.00 0.00 95 1018.0
20210921130504 78 213 0.0 0.0 0.00 0.00 0.00 95 1018.0
20210921130402 78 213 0.0 0.0 0.00 0.00 0.00 95 1018.0
20210921130302 78 213 0.0 0.0 0.00 0.00 0.00 95 1018.0
20210921130202 78 213 0.0 0.0 0.00 0.00 0.00 95 1017.9
20210921130102 78 213 0.0 0.0 0.00 0.00 0.00 95 1017.9
20210921130003 78 213 0.0 0.0 0.00 0.00 0.00 95 1017.9
20210921125905 78 212 0.0 0.0 0.00 0.00 0.00 95 1017.9
20210921125803 78 212 0.0 0.0 0.00 0.00 0.00 95 1017.9
20210921125704 78 212 0.0 0.0 0.00 0.00 0.00 95 1017.8
20210921125602 77 212 0.0 0.0 0.00 0.00 0.00 95 1017.8
20210921125505 77 212 0.0 0.0 0.00 0.00 0.00 95 1017.8
20210921125403 77 212 0.0 0.0 0.00 0.00 0.00 95 1017.8
20210921125306 77 212 0.0 0.0 0.00 0.00 0.00 95 1017.8
20210921125203 77 212 0.0 0.0 0.00 0.00 0.00 95 1017.8
20210921125103 77 212 0.0 0.0 0.00 0.00 0.00 95 1017.7
20210921125003 77 212 0.0 0.0 0.00 0.00 0.00 95 1017.7
20210921124902 77 212 0.0 0.0 0.00 0.00 0.00 95 1017.7
20210921124804 77 212 0.0 0.0 0.00 0.00 0.00 95 1017.8